Time,TemperatureF,DewpointF,PressureIn,WindDirection,WindDirectionDegrees,WindSpeedMPH,WindSpeedGustMPH,Humidity,HourlyPrecipIn,Conditions,Clouds,dailyrainin,SoftwareType,DateUTC
2013-01-14 00:00:00,23.4,20.4,30.32,West,279,0.0,0.0,88,0.00,,---,0.00,VWS V14.01,2013-01-14 06:00:00,
2013-01-14 00:03:00,23.1,20.4,30.32,West,279,0.0,0.0,89,0.00,,---,0.00,VWS V14.01,2013-01-14 06:03:00,
2013-01-14 00:19:00,22.9,20.1,30.33,West,279,0.0,0.0,89,0.00,,---,0.00,VWS V14.01,2013-01-14 06:19:00,
2013-01-14 00:21:00,22.8,20.0,30.33,West,279,0.0,0.0,89,0.00,,---,0.00,VWS V14.01,2013-01-14 06:21:00,
2013-01-14 00:24:00,22.7,20.0,30.33,West,279,0.0,0.0,89,0.00,,---,0.00,VWS V14.01,2013-01-14 06:24:00,
2013-01-14 00:26:00,22.7,20.0,30.33,West,279,0.0,0.0,89,0.00,,---,0.00,VWS V14.01,2013-01-14 06:26:00,
2013-01-14 00:29:00,22.7,20.0,30.33,West,280,0.0,0.0,89,0.00,,---,0.00,VWS V14.01,2013-01-14 06:29:00,
2013-01-14 00:30:00,22.7,20.0,30.33,West,279,0.0,0.0,89,0.00,,---,0.00,VWS V14.01,2013-01-14 06:30:00,
2013-01-14 00:31:00,22.6,19.9,30.33,West,280,0.0,0.0,89,0.00,,---,0.00,VWS V14.01,2013-01-14 06:31:00,
2013-01-14 00:34:00,22.6,20.1,30.33,West,279,0.0,0.0,90,0.00,,---,0.00,VWS V14.01,2013-01-14 06:34:00,
2013-01-14 00:36:00,22.6,20.1,30.33,West,279,0.0,0.0,90,0.00,,---,0.00,VWS V14.01,2013-01-14 06:36:00,
2013-01-14 00:40:00,22.6,19.9,30.33,West,279,0.0,0.0,89,0.00,,---,0.00,VWS V14.01,2013-01-14 06:40:00,
2013-01-14 00:41:00,22.5,19.8,30.33,West,279,0.0,0.0,89,0.00,,---,0.00,VWS V14.01,2013-01-14 06:41:00,
2013-01-14 00:42:00,22.5,19.8,30.33,West,279,0.0,0.0,89,0.00,,---,0.00,VWS V14.01,2013-01-14 06:42:00,
2013-01-14 00:45:00,22.5,20.0,30.34,West,279,0.0,0.0,90,0.00,,---,0.00,VWS V14.01,2013-01-14 06:45:00,
2013-01-14 00:47:00,22.5,20.0,30.34,West,279,0.0,0.0,90,0.00,,---,0.00,VWS V14.01,2013-01-14 06:47:00,
2013-01-14 00:50:00,22.5,19.8,30.34,West,279,0.0,0.0,89,0.00,,---,0.00,VWS V14.01,2013-01-14 06:50:00,
2013-01-14 00:52:00,22.5,20.0,30.34,West,279,0.0,0.0,90,0.00,,---,0.00,VWS V14.01,2013-01-14 06:52:00,
2013-01-14 00:55:00,22.4,19.7,30.34,West,279,0.0,0.0,89,0.00,,---,0.00,VWS V14.01,2013-01-14 06:55:00,
2013-01-14 00:57:00,22.4,19.7,30.34,West,279,0.0,0.0,89,0.00,,---,0.00,VWS V14.01,2013-01-14 06:57:00,
2013-01-14 01:00:00,22.4,19.9,30.34,West,279,0.0,0.0,90,0.00,,---,0.00,VWS V14.01,2013-01-14 07:00:00,
2013-01-14 01:02:00,22.3,19.8,30.34,West,279,0.0,0.0,90,0.00,,---,0.00,VWS V14.01,2013-01-14 07:02:00,
2013-01-14 01:05:00,22.4,19.9,30.33,West,279,0.0,0.0,90,0.00,,---,0.00,VWS V14.01,2013-01-14 07:05:00,
2013-01-14 01:07:00,22.4,19.9,30.34,West,279,0.0,0.0,90,0.00,,---,0.00,VWS V14.01,2013-01-14 07:07:00,
2013-01-14 01:10:00,22.4,19.9,30.34,West,279,0.0,0.0,90,0.00,,---,0.00,VWS V14.01,2013-01-14 07:10:00,
2013-01-14 01:12:00,22.3,19.8,30.34,West,279,0.0,0.0,90,0.00,,---,0.00,VWS V14.01,2013-01-14 07:12:00,
2013-01-14 01:15:00,22.4,19.7,30.34,West,279,0.0,0.0,89,0.00,,---,0.00,VWS V14.01,2013-01-14 07:15:00,
2013-01-14 01:17:00,22.4,19.7,30.34,West,279,0.0,0.0,89,0.00,,---,0.00,VWS V14.01,2013-01-14 07:17:00,
2013-01-14 01:18:00,22.4,19.7,30.34,West,279,0.0,0.0,89,0.00,,---,0.00,VWS V14.01,2013-01-14 07:18:00,
2013-01-14 01:20:00,22.3,19.6,30.34,West,279,0.0,0.0,89,0.00,,---,0.00,VWS V14.01,2013-01-14 07:20:00,
2013-01-14 01:22:00,22.3,19.6,30.34,West,279,0.0,0.0,89,0.00,,---,0.00,VWS V14.01,2013-01-14 07:22:00,
2013-01-14 01:23:00,22.3,19.6,30.34,West,279,0.0,0.0,89,0.00,,---,0.00,VWS V14.01,2013-01-14 07:23:00,
2013-01-14 01:25:00,22.3,19.6,30.34,West,279,0.0,0.0,89,0.00,,---,0.00,VWS V14.01,2013-01-14 07:25:00,
2013-01-14 01:27:00,22.2,19.5,30.35,West,279,0.0,0.0,89,0.00,,---,0.00,VWS V14.01,2013-01-14 07:27:00,
2013-01-14 01:28:00,22.2,19.5,30.35,West,280,0.0,0.0,89,0.00,,---,0.00,VWS V14.01,2013-01-14 07:28:00,
2013-01-14 01:30:00,22.2,19.5,30.35,West,279,0.0,0.0,89,0.00,,---,0.00,VWS V14.01,2013-01-14 07:30:00,
2013-01-14 01:32:00,22.2,19.2,30.35,West,279,0.0,0.0,88,0.00,,---,0.00,VWS V14.01,2013-01-14 07:32:00,
2013-01-14 01:33:00,22.2,19.2,30.35,West,279,0.0,0.0,88,0.00,,---,0.00,VWS V14.01,2013-01-14 07:33:00,
2013-01-14 01:35:00,22.2,19.2,30.35,West,279,0.0,0.0,88,0.00,,---,0.00,VWS V14.01,2013-01-14 07:35:00,
2013-01-14 01:38:00,22.1,19.1,30.36,West,279,0.0,0.0,88,0.00,,---,0.00,VWS V14.01,2013-01-14 07:38:00,
2013-01-14 01:40:00,22.1,19.1,30.36,West,279,0.0,0.0,88,0.00,,---,0.00,VWS V14.01,2013-01-14 07:40:00,
2013-01-14 01:43:00,22.1,19.1,30.36,West,279,0.0,0.0,88,0.00,,---,0.00,VWS V14.01,2013-01-14 07:43:00,
2013-01-14 01:46:00,22.1,19.1,30.36,West,279,0.0,0.0,88,0.00,,---,0.00,VWS V14.01,2013-01-14 07:46:00,
2013-01-14 01:48:00,22.0,19.0,30.36,West,279,0.0,0.0,88,0.00,,---,0.00,VWS V14.01,2013-01-14 07:48:00,
2013-01-14 01:51:00,22.0,19.0,30.36,West,279,0.0,0.0,88,0.00,,---,0.00,VWS V14.01,2013-01-14 07:51:00,
2013-01-14 01:53:00,22.0,19.0,30.36,West,279,0.0,0.0,88,0.00,,---,0.00,VWS V14.01,2013-01-14 07:53:00,
2013-01-14 01:54:00,22.0,19.0,30.36,West,279,0.0,0.0,88,0.00,,---,0.00,VWS V14.01,2013-01-14 07:54:00,
2013-01-14 01:56:00,22.0,19.0,30.37,West,279,0.0,0.0,88,0.00,,---,0.00,VWS V14.01,2013-01-14 07:56:00,
2013-01-14 01:58:00,22.0,19.0,30.37,West,279,0.0,0.0,88,0.00,,---,0.00,VWS V14.01,2013-01-14 07:58:00,
2013-01-14 01:59:00,22.0,19.0,30.37,West,279,0.0,0.0,88,0.00,,---,0.00,VWS V14.01,2013-01-14 07:59:00,
2013-01-14 02:00:00,22.0,19.0,30.37,West,280,0.0,0.0,88,0.00,,---,0.00,VWS V14.01,2013-01-14 08:00:00,
2013-01-14 02:01:00,22.0,19.0,30.37,West,279,0.0,0.0,88,0.00,,---,0.00,VWS V14.01,2013-01-14 08:01:00,
2013-01-14 02:03:00,21.9,18.9,30.37,West,279,0.0,0.0,88,0.00,,---,0.00,VWS V14.01,2013-01-14 08:03:00,
2013-01-14 02:04:00,21.8,18.8,30.37,West,279,0.0,0.0,88,0.00,,---,0.00,VWS V14.01,2013-01-14 08:04:00,
2013-01-14 02:06:00,21.7,18.7,30.37,West,279,0.0,0.0,88,0.00,,---,0.00,VWS V14.01,2013-01-14 08:06:00,
2013-01-14 02:08:00,21.7,18.7,30.37,West,279,0.0,0.0,88,0.00,,---,0.00,VWS V14.01,2013-01-14 08:08:00,
2013-01-14 02:09:00,21.7,18.7,30.37,West,279,0.0,0.0,88,0.00,,---,0.00,VWS V14.01,2013-01-14 08:09:00,
2013-01-14 02:11:00,21.7,18.7,30.37,West,279,0.0,0.0,88,0.00,,---,0.00,VWS V14.01,2013-01-14 08:11:00,
2013-01-14 02:13:00,21.7,18.7,30.37,West,279,0.0,0.0,88,0.00,,---,0.00,VWS V14.01,2013-01-14 08:13:00,
2013-01-14 02:14:00,21.7,18.7,30.37,West,279,0.0,0.0,88,0.00,,---,0.00,VWS V14.01,2013-01-14 08:14:00,
2013-01-14 02:16:00,21.7,18.7,30.37,West,279,0.0,0.0,88,0.00,,---,0.00,VWS V14.01,2013-01-14 08:16:00,
2013-01-14 02:18:00,21.7,18.7,30.38,West,279,0.0,0.0,88,0.00,,---,0.00,VWS V14.01,2013-01-14 08:18:00,
2013-01-14 02:19:00,21.7,18.7,30.38,West,279,0.0,0.0,88,0.00,,---,0.00,VWS V14.01,2013-01-14 08:19:00,
2013-01-14 02:21:00,21.7,18.7,30.38,West,279,0.0,0.0,88,0.00,,---,0.00,VWS V14.01,2013-01-14 08:21:00,
2013-01-14 02:23:00,21.6,18.6,30.37,West,279,0.0,0.0,88,0.00,,---,0.00,VWS V14.01,2013-01-14 08:23:00,
2013-01-14 02:24:00,21.6,18.6,30.37,West,279,0.0,0.0,88,0.00,,---,0.00,VWS V14.01,2013-01-14 08:24:00,
2013-01-14 02:26:00,21.6,18.6,30.37,West,279,0.0,0.0,88,0.00,,---,0.00,VWS V14.01,2013-01-14 08:26:00,
2013-01-14 02:28:00,21.6,18.6,30.37,West,279,0.0,0.0,88,0.00,,---,0.00,VWS V14.01,2013-01-14 08:28:00,
2013-01-14 02:29:00,21.6,18.6,30.37,West,279,0.0,0.0,88,0.00,,---,0.00,VWS V14.01,2013-01-14 08:29:00,
2013-01-14 02:30:00,21.6,18.6,30.37,West,279,0.0,0.0,88,0.00,,---,0.00,VWS V14.01,2013-01-14 08:30:00,
2013-01-14 02:31:00,21.6,18.6,30.37,West,279,0.0,0.0,88,0.00,,---,0.00,VWS V14.01,2013-01-14 08:31:00,
2013-01-14 02:33:00,21.5,18.5,30.37,West,279,0.0,0.0,88,0.00,,---,0.00,VWS V14.01,2013-01-14 08:33:00,
2013-01-14 02:34:00,21.5,18.5,30.37,West,279,0.0,0.0,88,0.00,,---,0.00,VWS V14.01,2013-01-14 08:34:00,
2013-01-14 02:35:00,21.5,18.5,30.37,West,279,0.0,0.0,88,0.00,,---,0.00,VWS V14.01,2013-01-14 08:35:00,
2013-01-14 02:36:00,21.5,18.5,30.37,West,279,0.0,0.0,88,0.00,,---,0.00,VWS V14.01,2013-01-14 08:36:00,
2013-01-14 02:38:00,21.5,18.5,30.37,West,279,0.0,0.0,88,0.00,,---,0.00,VWS V14.01,2013-01-14 08:38:00,
2013-01-14 02:39:00,21.5,18.5,30.37,West,279,0.0,0.0,88,0.00,,---,0.00,VWS V14.01,2013-01-14 08:39:00,
2013-01-14 02:40:00,21.5,18.5,30.37,West,279,0.0,0.0,88,0.00,,---,0.00,VWS V14.01,2013-01-14 08:40:00,
2013-01-14 02:42:00,21.4,18.4,30.37,West,279,0.0,0.0,88,0.00,,---,0.00,VWS V14.01,2013-01-14 08:42:00,
2013-01-14 02:44:00,21.5,18.5,30.38,West,279,0.0,0.0,88,0.00,,---,0.00,VWS V14.01,2013-01-14 08:44:00,
2013-01-14 02:45:00,21.4,18.4,30.38,West,279,0.0,0.0,88,0.00,,---,0.00,VWS V14.01,2013-01-14 08:45:00,
2013-01-14 02:47:00,21.4,18.4,30.38,West,279,0.0,0.0,88,0.00,,---,0.00,VWS V14.01,2013-01-14 08:47:00,
2013-01-14 02:49:00,21.4,18.4,30.38,West,279,0.0,0.0,88,0.00,,---,0.00,VWS V14.01,2013-01-14 08:49:00,
2013-01-14 02:50:00,21.4,18.4,30.38,West,279,0.0,0.0,88,0.00,,---,0.00,VWS V14.01,2013-01-14 08:50:00,
2013-01-14 02:53:00,21.4,18.4,30.38,West,279,0.0,0.0,88,0.00,,---,0.00,VWS V14.01,2013-01-14 08:53:00,
2013-01-14 02:54:00,21.4,18.4,30.38,West,280,0.0,0.0,88,0.00,,---,0.00,VWS V14.01,2013-01-14 08:54:00,
2013-01-14 02:55:00,21.4,18.4,30.38,West,279,0.0,0.0,88,0.00,,---,0.00,VWS V14.01,2013-01-14 08:55:00,
2013-01-14 02:58:00,21.3,18.3,30.38,West,279,0.0,0.0,88,0.00,,---,0.00,VWS V14.01,2013-01-14 08:58:00,
2013-01-14 02:59:00,21.3,18.0,30.38,West,280,0.0,0.0,87,0.00,,---,0.00,VWS V14.01,2013-01-14 08:59:00,
2013-01-14 03:00:00,21.3,18.0,30.38,West,279,0.0,0.0,87,0.00,,---,0.00,VWS V14.01,2013-01-14 09:00:00,
2013-01-14 03:01:00,21.3,18.0,30.38,West,279,0.0,0.0,87,0.00,,---,0.00,VWS V14.01,2013-01-14 09:01:00,
2013-01-14 03:03:00,21.3,18.0,30.38,West,279,0.0,0.0,87,0.00,,---,0.00,VWS V14.01,2013-01-14 09:03:00,
2013-01-14 03:04:00,21.3,18.0,30.38,West,279,0.0,0.0,87,0.00,,---,0.00,VWS V14.01,2013-01-14 09:04:00,
2013-01-14 03:05:00,21.3,18.0,30.38,West,279,0.0,0.0,87,0.00,,---,0.00,VWS V14.01,2013-01-14 09:05:00,
2013-01-14 03:06:00,21.3,18.0,30.38,West,279,0.0,0.0,87,0.00,,---,0.00,VWS V14.01,2013-01-14 09:06:00,
2013-01-14 03:08:00,21.3,18.0,30.38,West,279,0.0,0.0,87,0.00,,---,0.00,VWS V14.01,2013-01-14 09:08:00,
2013-01-14 03:09:00,21.2,17.9,30.38,West,279,0.0,0.0,87,0.00,,---,0.00,VWS V14.01,2013-01-14 09:09:00,
2013-01-14 03:10:00,21.2,17.9,30.38,West,279,0.0,0.0,87,0.00,,---,0.00,VWS V14.01,2013-01-14 09:10:00,
2013-01-14 03:11:00,21.2,17.9,30.38,West,279,0.0,0.0,87,0.00,,---,0.00,VWS V14.01,2013-01-14 09:11:00,
2013-01-14 03:13:00,21.2,17.9,30.38,West,279,0.0,0.0,87,0.00,,---,0.00,VWS V14.01,2013-01-14 09:13:00,
2013-01-14 03:14:00,21.2,17.9,30.38,West,279,0.0,0.0,87,0.00,,---,0.00,VWS V14.01,2013-01-14 09:14:00,
2013-01-14 03:15:00,21.2,17.9,30.38,West,279,0.0,0.0,87,0.00,,---,0.00,VWS V14.01,2013-01-14 09:15:00,
2013-01-14 03:16:00,21.2,17.9,30.38,West,280,0.0,0.0,87,0.00,,---,0.00,VWS V14.01,2013-01-14 09:16:00,
2013-01-14 03:18:00,21.1,17.8,30.38,West,279,0.0,0.0,87,0.00,,---,0.00,VWS V14.01,2013-01-14 09:18:00,
2013-01-14 03:19:00,21.1,17.8,30.38,West,279,0.0,0.0,87,0.00,,---,0.00,VWS V14.01,2013-01-14 09:19:00,
2013-01-14 03:20:00,21.1,17.8,30.38,West,279,0.0,0.0,87,0.00,,---,0.00,VWS V14.01,2013-01-14 09:20:00,
2013-01-14 03:21:00,21.1,17.8,30.38,West,279,0.0,0.0,87,0.00,,---,0.00,VWS V14.01,2013-01-14 09:21:00,
2013-01-14 03:24:00,21.1,17.8,30.38,West,279,0.0,0.0,87,0.00,,---,0.00,VWS V14.01,2013-01-14 09:24:00,
2013-01-14 03:25:00,21.1,17.8,30.38,West,279,0.0,0.0,87,0.00,,---,0.00,VWS V14.01,2013-01-14 09:25:00,
2013-01-14 03:26:00,21.0,17.8,30.38,West,279,0.0,0.0,87,0.00,,---,0.00,VWS V14.01,2013-01-14 09:26:00,
2013-01-14 03:29:00,21.0,17.8,30.37,West,279,0.0,0.0,87,0.00,,---,0.00,VWS V14.01,2013-01-14 09:29:00,
2013-01-14 03:30:00,21.0,17.8,30.37,West,279,0.0,0.0,87,0.00,,---,0.00,VWS V14.01,2013-01-14 09:30:00,
2013-01-14 03:31:00,21.0,17.8,30.37,West,279,0.0,0.0,87,0.00,,---,0.00,VWS V14.01,2013-01-14 09:31:00,
2013-01-14 03:34:00,20.9,17.6,30.37,West,279,0.0,0.0,87,0.00,,---,0.00,VWS V14.01,2013-01-14 09:34:00,
2013-01-14 03:35:00,21.0,17.8,30.38,West,279,0.0,0.0,87,0.00,,---,0.00,VWS V14.01,2013-01-14 09:35:00,
2013-01-14 03:36:00,20.9,17.6,30.38,West,279,0.0,0.0,87,0.00,,---,0.00,VWS V14.01,2013-01-14 09:36:00,
2013-01-14 03:39:00,20.9,17.6,30.38,West,279,0.0,0.0,87,0.00,,---,0.00,VWS V14.01,2013-01-14 09:39:00,
2013-01-14 03:40:00,20.9,17.6,30.37,West,279,0.0,0.0,87,0.00,,---,0.00,VWS V14.01,2013-01-14 09:40:00,
2013-01-14 03:41:00,20.9,17.6,30.37,West,279,0.0,0.0,87,0.00,,---,0.00,VWS V14.01,2013-01-14 09:41:00,
2013-01-14 03:44:00,20.9,17.6,30.38,West,279,0.0,0.0,87,0.00,,---,0.00,VWS V14.01,2013-01-14 09:44:00,
2013-01-14 03:45:00,20.9,17.6,30.38,West,279,0.0,0.0,87,0.00,,---,0.00,VWS V14.01,2013-01-14 09:45:00,
2013-01-14 03:46:00,20.9,17.6,30.38,West,279,0.0,0.0,87,0.00,,---,0.00,VWS V14.01,2013-01-14 09:46:00,
2013-01-14 03:47:00,20.9,17.6,30.37,West,279,0.0,0.0,87,0.00,,---,0.00,VWS V14.01,2013-01-14 09:47:00,
2013-01-14 03:49:00,20.8,17.5,30.37,West,279,0.0,0.0,87,0.00,,---,0.00,VWS V14.01,2013-01-14 09:49:00,
2013-01-14 03:51:00,20.8,17.5,30.37,West,279,0.0,0.0,87,0.00,,---,0.00,VWS V14.01,2013-01-14 09:51:00,
2013-01-14 03:52:00,20.8,17.5,30.37,West,279,0.0,0.0,87,0.00,,---,0.00,VWS V14.01,2013-01-14 09:52:00,
2013-01-14 03:54:00,20.8,17.5,30.37,West,279,0.0,0.0,87,0.00,,---,0.00,VWS V14.01,2013-01-14 09:54:00,
2013-01-14 03:56:00,20.8,17.5,30.37,West,279,0.0,0.0,87,0.00,,---,0.00,VWS V14.01,2013-01-14 09:56:00,
2013-01-14 03:58:00,20.7,17.5,30.37,West,279,0.0,0.0,87,0.00,,---,0.00,VWS V14.01,2013-01-14 09:58:00,
2013-01-14 03:59:00,20.8,17.5,30.37,West,279,0.0,0.0,87,0.00,,---,0.00,VWS V14.01,2013-01-14 09:59:00,
2013-01-14 04:00:00,20.8,17.5,30.37,West,279,0.0,0.0,87,0.00,,---,0.00,VWS V14.01,2013-01-14 10:00:00,
2013-01-14 04:01:00,20.7,17.5,30.37,West,279,0.0,0.0,87,0.00,,---,0.00,VWS V14.01,2013-01-14 10:01:00,
2013-01-14 04:03:00,20.7,17.5,30.37,West,279,0.0,0.0,87,0.00,,---,0.00,VWS V14.01,2013-01-14 10:03:00,
2013-01-14 04:04:00,20.7,17.5,30.37,West,279,0.0,0.0,87,0.00,,---,0.00,VWS V14.01,2013-01-14 10:04:00,
2013-01-14 04:06:00,20.7,17.5,30.37,West,279,0.0,0.0,87,0.00,,---,0.00,VWS V14.01,2013-01-14 10:06:00,
2013-01-14 04:08:00,20.7,17.5,30.37,West,279,0.0,0.0,87,0.00,,---,0.00,VWS V14.01,2013-01-14 10:08:00,
2013-01-14 04:09:00,20.7,17.5,30.37,West,279,0.0,0.0,87,0.00,,---,0.00,VWS V14.01,2013-01-14 10:09:00,
2013-01-14 04:12:00,20.7,17.5,30.37,West,279,0.0,0.0,87,0.00,,---,0.00,VWS V14.01,2013-01-14 10:12:00,
2013-01-14 04:13:00,20.7,17.5,30.37,West,280,0.0,0.0,87,0.00,,---,0.00,VWS V14.01,2013-01-14 10:13:00,
2013-01-14 04:14:00,20.7,17.5,30.37,West,279,0.0,0.0,87,0.00,,---,0.00,VWS V14.01,2013-01-14 10:14:00,
2013-01-14 04:17:00,20.7,17.5,30.37,West,279,0.0,0.0,87,0.00,,---,0.00,VWS V14.01,2013-01-14 10:17:00,
2013-01-14 04:18:00,20.7,17.5,30.37,West,279,0.0,0.0,87,0.00,,---,0.00,VWS V14.01,2013-01-14 10:18:00,
2013-01-14 04:19:00,20.7,17.5,30.37,West,279,0.0,0.0,87,0.00,,---,0.00,VWS V14.01,2013-01-14 10:19:00,
2013-01-14 04:22:00,20.7,17.5,30.38,West,279,0.0,0.0,87,0.00,,---,0.00,VWS V14.01,2013-01-14 10:22:00,
2013-01-14 04:23:00,20.7,17.5,30.38,West,279,0.0,0.0,87,0.00,,---,0.00,VWS V14.01,2013-01-14 10:23:00,
2013-01-14 04:25:00,20.7,17.5,30.38,West,279,0.0,0.0,87,0.00,,---,0.00,VWS V14.01,2013-01-14 10:25:00,
2013-01-14 04:27:00,20.7,17.2,30.37,West,279,0.0,0.0,86,0.00,,---,0.00,VWS V14.01,2013-01-14 10:27:00,
2013-01-14 04:28:00,20.7,17.2,30.37,West,279,0.0,0.0,86,0.00,,---,0.00,VWS V14.01,2013-01-14 10:28:00,
2013-01-14 04:30:00,20.7,17.2,30.37,West,279,0.0,0.0,86,0.00,,---,0.00,VWS V14.01,2013-01-14 10:30:00,
2013-01-14 04:33:00,20.7,17.2,30.37,West,279,0.0,0.0,86,0.00,,---,0.00,VWS V14.01,2013-01-14 10:33:00,
2013-01-14 04:35:00,20.7,17.2,30.37,West,279,0.0,0.0,86,0.00,,---,0.00,VWS V14.01,2013-01-14 10:35:00,
2013-01-14 04:38:00,20.7,17.2,30.37,West,279,0.0,0.0,86,0.00,,---,0.00,VWS V14.01,2013-01-14 10:38:00,
2013-01-14 04:40:00,20.6,17.1,30.37,West,279,0.0,0.0,86,0.00,,---,0.00,VWS V14.01,2013-01-14 10:40:00,
2013-01-14 04:43:00,20.6,17.1,30.37,West,279,0.0,0.0,86,0.00,,---,0.00,VWS V14.01,2013-01-14 10:43:00,
2013-01-14 04:46:00,20.6,17.1,30.37,West,279,0.0,0.0,86,0.00,,---,0.00,VWS V14.01,2013-01-14 10:46:00,
2013-01-14 04:48:00,20.6,17.1,30.38,West,279,0.0,0.0,86,0.00,,---,0.00,VWS V14.01,2013-01-14 10:48:00,
2013-01-14 04:49:00,20.6,17.1,30.38,West,280,0.0,0.0,86,0.00,,---,0.00,VWS V14.01,2013-01-14 10:49:00,
2013-01-14 04:51:00,20.6,17.1,30.38,West,279,0.0,0.0,86,0.00,,---,0.00,VWS V14.01,2013-01-14 10:51:00,
2013-01-14 04:54:00,20.6,17.1,30.38,West,279,0.0,0.0,86,0.00,,---,0.00,VWS V14.01,2013-01-14 10:54:00,
2013-01-14 04:56:00,20.6,17.1,30.38,West,279,0.0,0.0,86,0.00,,---,0.00,VWS V14.01,2013-01-14 10:56:00,
2013-01-14 04:59:00,20.5,17.0,30.37,West,279,0.0,0.0,86,0.00,,---,0.00,VWS V14.01,2013-01-14 10:59:00,
2013-01-14 05:00:00,20.6,17.1,30.37,West,279,0.0,0.0,86,0.00,,---,0.00,VWS V14.01,2013-01-14 11:00:00,
2013-01-14 05:02:00,20.6,17.1,30.37,West,279,0.0,0.0,86,0.00,,---,0.00,VWS V14.01,2013-01-14 11:02:00,
2013-01-14 05:04:00,20.6,17.1,30.37,West,279,0.0,0.0,86,0.00,,---,0.00,VWS V14.01,2013-01-14 11:04:00,
2013-01-14 05:05:00,20.5,17.0,30.37,West,279,0.0,0.0,86,0.00,,---,0.00,VWS V14.01,2013-01-14 11:05:00,
2013-01-14 05:07:00,20.5,17.2,30.37,West,279,0.0,0.0,87,0.00,,---,0.00,VWS V14.01,2013-01-14 11:07:00,
2013-01-14 05:09:00,20.5,17.0,30.37,West,279,0.0,0.0,86,0.00,,---,0.00,VWS V14.01,2013-01-14 11:09:00,
2013-01-14 05:10:00,20.5,17.0,30.37,West,279,0.0,0.0,86,0.00,,---,0.00,VWS V14.01,2013-01-14 11:10:00,
2013-01-14 05:12:00,20.5,17.0,30.37,West,279,0.0,0.0,86,0.00,,---,0.00,VWS V14.01,2013-01-14 11:12:00,
2013-01-14 05:14:00,20.4,17.2,30.37,West,279,0.0,0.0,87,0.00,,---,0.00,VWS V14.01,2013-01-14 11:14:00,
2013-01-14 05:15:00,20.4,17.2,30.37,West,279,0.0,0.0,87,0.00,,---,0.00,VWS V14.01,2013-01-14 11:15:00,
2013-01-14 05:17:00,20.4,17.2,30.37,West,279,0.0,0.0,87,0.00,,---,0.00,VWS V14.01,2013-01-14 11:17:00,
2013-01-14 05:19:00,20.4,16.9,30.37,West,279,0.0,0.0,86,0.00,,---,0.00,VWS V14.01,2013-01-14 11:19:00,
2013-01-14 05:20:00,20.4,16.9,30.37,West,279,0.0,0.0,86,0.00,,---,0.00,VWS V14.01,2013-01-14 11:20:00,
2013-01-14 05:22:00,20.4,16.9,30.37,West,279,0.0,0.0,86,0.00,,---,0.00,VWS V14.01,2013-01-14 11:22:00,
2013-01-14 05:24:00,20.4,16.9,30.37,West,279,0.0,0.0,86,0.00,,---,0.00,VWS V14.01,2013-01-14 11:24:00,
2013-01-14 05:25:00,20.4,16.9,30.37,West,279,0.0,0.0,86,0.00,,---,0.00,VWS V14.01,2013-01-14 11:25:00,
2013-01-14 05:27:00,20.4,16.9,30.37,West,279,0.0,0.0,86,0.00,,---,0.00,VWS V14.01,2013-01-14 11:27:00,
2013-01-14 05:29:00,20.3,16.8,30.37,West,280,0.0,0.0,86,0.00,,---,0.00,VWS V14.01,2013-01-14 11:29:00,
2013-01-14 05:30:00,20.4,16.9,30.37,West,279,0.0,0.0,86,0.00,,---,0.00,VWS V14.01,2013-01-14 11:30:00,
2013-01-14 05:32:00,20.4,16.9,30.37,West,279,0.0,0.0,86,0.00,,---,0.00,VWS V14.01,2013-01-14 11:32:00,
2013-01-14 05:34:00,20.4,16.9,30.37,West,279,0.0,0.0,86,0.00,,---,0.00,VWS V14.01,2013-01-14 11:34:00,
2013-01-14 05:35:00,20.4,16.9,30.37,West,279,0.0,0.0,86,0.00,,---,0.00,VWS V14.01,2013-01-14 11:35:00,
2013-01-14 05:37:00,20.4,16.9,30.37,West,279,0.0,0.0,86,0.00,,---,0.00,VWS V14.01,2013-01-14 11:37:00,
2013-01-14 05:40:00,20.3,16.8,30.37,West,279,0.0,0.0,86,0.00,,---,0.00,VWS V14.01,2013-01-14 11:40:00,
2013-01-14 05:41:00,20.3,16.8,30.37,West,279,0.0,0.0,86,0.00,,---,0.00,VWS V14.01,2013-01-14 11:41:00,
2013-01-14 05:43:00,20.3,16.8,30.37,West,279,0.0,0.0,86,0.00,,---,0.00,VWS V14.01,2013-01-14 11:43:00,
2013-01-14 05:45:00,20.3,16.8,30.37,West,279,0.0,0.0,86,0.00,,---,0.00,VWS V14.01,2013-01-14 11:45:00,
2013-01-14 05:46:00,20.2,16.7,30.37,West,280,0.0,0.0,86,0.00,,---,0.00,VWS V14.01,2013-01-14 11:46:00,
2013-01-14 05:48:00,20.3,16.8,30.37,West,279,0.0,0.0,86,0.00,,---,0.00,VWS V14.01,2013-01-14 11:48:00,
2013-01-14 05:50:00,20.3,16.8,30.38,West,279,0.0,0.0,86,0.00,,---,0.00,VWS V14.01,2013-01-14 11:50:00,
2013-01-14 05:51:00,20.3,16.8,30.38,West,279,0.0,0.0,86,0.00,,---,0.00,VWS V14.01,2013-01-14 11:51:00,
2013-01-14 05:53:00,20.3,16.8,30.38,West,279,0.0,0.0,86,0.00,,---,0.00,VWS V14.01,2013-01-14 11:53:00,
2013-01-14 05:55:00,20.3,16.8,30.38,West,279,0.0,0.0,86,0.00,,---,0.00,VWS V14.01,2013-01-14 11:55:00,
2013-01-14 05:57:00,20.3,16.8,30.37,West,279,0.0,0.0,86,0.00,,---,0.00,VWS V14.01,2013-01-14 11:57:00,
2013-01-14 05:58:00,20.3,16.8,30.37,West,279,0.0,0.0,86,0.00,,---,0.00,VWS V14.01,2013-01-14 11:58:00,
2013-01-14 06:00:00,20.3,16.8,30.37,West,280,0.0,0.0,86,0.00,,---,0.00,VWS V14.01,2013-01-14 12:00:00,
2013-01-14 06:02:00,20.3,16.8,30.37,West,280,0.0,0.0,86,0.00,,---,0.00,VWS V14.01,2013-01-14 12:02:00,
2013-01-14 06:03:00,20.3,16.8,30.37,West,279,0.0,0.0,86,0.00,,---,0.00,VWS V14.01,2013-01-14 12:03:00,
2013-01-14 06:05:00,20.3,16.8,30.38,West,279,0.0,0.0,86,0.00,,---,0.00,VWS V14.01,2013-01-14 12:05:00,
2013-01-14 06:07:00,20.3,16.8,30.38,West,279,0.0,0.0,86,0.00,,---,0.00,VWS V14.01,2013-01-14 12:07:00,
2013-01-14 06:08:00,20.3,16.8,30.38,West,279,0.0,0.0,86,0.00,,---,0.00,VWS V14.01,2013-01-14 12:08:00,
2013-01-14 06:10:00,20.3,16.8,30.38,West,279,0.0,0.0,86,0.00,,---,0.00,VWS V14.01,2013-01-14 12:10:00,
2013-01-14 06:11:00,20.2,16.7,30.38,West,279,0.0,0.0,86,0.00,,---,0.00,VWS V14.01,2013-01-14 12:11:00,
2013-01-14 06:12:00,20.2,16.7,30.38,West,279,0.0,0.0,86,0.00,,---,0.00,VWS V14.01,2013-01-14 12:12:00,
2013-01-14 06:13:00,20.2,16.7,30.38,West,279,0.0,0.0,86,0.00,,---,0.00,VWS V14.01,2013-01-14 12:13:00,
2013-01-14 06:16:00,20.2,16.7,30.38,West,279,0.0,0.0,86,0.00,,---,0.00,VWS V14.01,2013-01-14 12:16:00,
2013-01-14 06:17:00,20.3,16.8,30.38,West,279,0.0,0.0,86,0.00,,---,0.00,VWS V14.01,2013-01-14 12:17:00,
2013-01-14 06:18:00,20.3,16.8,30.38,West,279,0.0,0.0,86,0.00,,---,0.00,VWS V14.01,2013-01-14 12:18:00,
2013-01-14 06:21:00,20.3,16.8,30.37,West,279,0.0,0.0,86,0.00,,---,0.00,VWS V14.01,2013-01-14 12:21:00,
2013-01-14 06:23:00,20.3,16.8,30.37,West,279,0.0,0.0,86,0.00,,---,0.00,VWS V14.01,2013-01-14 12:23:00,
2013-01-14 06:26:00,20.3,16.8,30.38,West,279,0.0,0.0,86,0.00,,---,0.00,VWS V14.01,2013-01-14 12:26:00,
2013-01-14 06:28:00,20.3,16.8,30.38,West,279,0.0,0.0,86,0.00,,---,0.00,VWS V14.01,2013-01-14 12:28:00,
2013-01-14 06:30:00,20.3,16.8,30.38,West,279,0.0,0.0,86,0.00,,---,0.00,VWS V14.01,2013-01-14 12:30:00,
2013-01-14 06:31:00,20.3,16.8,30.38,West,279,0.0,0.0,86,0.00,,---,0.00,VWS V14.01,2013-01-14 12:31:00,
2013-01-14 06:33:00,20.3,16.8,30.38,West,279,0.0,0.0,86,0.00,,---,0.00,VWS V14.01,2013-01-14 12:33:00,
2013-01-14 06:34:00,20.3,16.8,30.38,West,279,0.0,0.0,86,0.00,,---,0.00,VWS V14.01,2013-01-14 12:34:00,
2013-01-14 06:37:00,20.3,16.8,30.38,West,279,0.0,0.0,86,0.00,,---,0.00,VWS V14.01,2013-01-14 12:37:00,
2013-01-14 06:38:00,20.3,16.8,30.38,West,279,0.0,0.0,86,0.00,,---,0.00,VWS V14.01,2013-01-14 12:38:00,
2013-01-14 06:39:00,20.3,16.8,30.38,West,279,0.0,0.0,86,0.00,,---,0.00,VWS V14.01,2013-01-14 12:39:00,
2013-01-14 06:41:00,20.3,16.8,30.38,West,279,0.0,0.0,86,0.00,,---,0.00,VWS V14.01,2013-01-14 12:41:00,
2013-01-14 06:42:00,20.3,16.8,30.38,West,279,0.0,0.0,86,0.00,,---,0.00,VWS V14.01,2013-01-14 12:42:00,
2013-01-14 06:43:00,20.3,16.8,30.38,West,280,0.0,0.0,86,0.00,,---,0.00,VWS V14.01,2013-01-14 12:43:00,
2013-01-14 06:44:00,20.3,16.8,30.38,West,279,0.0,0.0,86,0.00,,---,0.00,VWS V14.01,2013-01-14 12:44:00,
2013-01-14 06:47:00,20.3,16.8,30.38,West,279,0.0,0.0,86,0.00,,---,0.00,VWS V14.01,2013-01-14 12:47:00,
2013-01-14 06:49:00,20.2,16.7,30.38,West,279,0.0,0.0,86,0.00,,---,0.00,VWS V14.01,2013-01-14 12:49:00,
2013-01-14 06:52:00,20.2,16.7,30.38,West,279,0.0,0.0,86,0.00,,---,0.00,VWS V14.01,2013-01-14 12:52:00,
2013-01-14 06:54:00,20.2,16.7,30.38,West,279,0.0,0.0,86,0.00,,---,0.00,VWS V14.01,2013-01-14 12:54:00,
2013-01-14 06:55:00,20.2,16.7,30.38,West,279,0.0,0.0,86,0.00,,---,0.00,VWS V14.01,2013-01-14 12:55:00,
2013-01-14 06:57:00,20.2,17.0,30.38,West,279,0.0,0.0,87,0.00,,---,0.00,VWS V14.01,2013-01-14 12:57:00,
2013-01-14 06:59:00,20.2,17.0,30.38,West,279,0.0,0.0,87,0.00,,---,0.00,VWS V14.01,2013-01-14 12:59:00,
2013-01-14 07:00:00,20.2,17.0,30.38,West,279,0.0,0.0,87,0.00,,---,0.00,VWS V14.01,2013-01-14 13:00:00,
2013-01-14 07:02:00,20.2,17.0,30.38,West,279,0.0,0.0,87,0.00,,---,0.00,VWS V14.01,2013-01-14 13:02:00,
2013-01-14 07:04:00,20.2,17.0,30.38,West,279,0.0,0.0,87,0.00,,---,0.00,VWS V14.01,2013-01-14 13:04:00,
2013-01-14 07:05:00,20.2,17.0,30.38,West,279,0.0,0.0,87,0.00,,---,0.00,VWS V14.01,2013-01-14 13:05:00,
2013-01-14 07:07:00,20.2,17.0,30.38,West,279,0.0,0.0,87,0.00,,---,0.00,VWS V14.01,2013-01-14 13:07:00,
2013-01-14 07:09:00,20.2,17.0,30.38,West,279,0.0,0.0,87,0.00,,---,0.00,VWS V14.01,2013-01-14 13:09:00,
2013-01-14 07:11:00,20.2,17.0,30.38,West,279,0.0,0.0,87,0.00,,---,0.00,VWS V14.01,2013-01-14 13:11:00,
2013-01-14 07:12:00,20.2,17.0,30.38,West,279,0.0,0.0,87,0.00,,---,0.00,VWS V14.01,2013-01-14 13:12:00,
2013-01-14 07:13:00,20.2,17.0,30.38,West,279,0.0,0.0,87,0.00,,---,0.00,VWS V14.01,2013-01-14 13:13:00,
2013-01-14 07:14:00,20.2,17.0,30.37,West,279,0.0,0.0,87,0.00,,---,0.00,VWS V14.01,2013-01-14 13:14:00,
2013-01-14 07:16:00,20.2,17.0,30.37,West,279,0.0,0.0,87,0.00,,---,0.00,VWS V14.01,2013-01-14 13:16:00,
2013-01-14 07:17:00,20.2,17.0,30.37,West,279,0.0,0.0,87,0.00,,---,0.00,VWS V14.01,2013-01-14 13:17:00,
2013-01-14 07:18:00,20.2,17.0,30.37,West,279,0.0,0.0,87,0.00,,---,0.00,VWS V14.01,2013-01-14 13:18:00,
2013-01-14 07:19:00,20.3,17.1,30.37,West,279,0.0,0.0,87,0.00,,---,0.00,VWS V14.01,2013-01-14 13:19:00,
2013-01-14 07:21:00,20.3,17.1,30.37,West,279,0.0,0.0,87,0.00,,---,0.00,VWS V14.01,2013-01-14 13:21:00,
2013-01-14 07:22:00,20.3,17.1,30.36,West,279,0.0,0.0,87,0.00,,---,0.00,VWS V14.01,2013-01-14 13:22:00,
2013-01-14 07:23:00,20.3,17.1,30.36,West,279,0.0,0.0,87,0.00,,---,0.00,VWS V14.01,2013-01-14 13:23:00,
2013-01-14 07:24:00,20.3,17.1,30.36,West,279,0.0,0.0,87,0.00,,---,0.00,VWS V14.01,2013-01-14 13:24:00,
2013-01-14 07:27:00,20.4,17.2,30.37,West,279,0.0,0.0,87,0.00,,---,0.00,VWS V14.01,2013-01-14 13:27:00,
2013-01-14 07:28:00,20.4,17.2,30.37,West,279,0.0,0.0,87,0.00,,---,0.00,VWS V14.01,2013-01-14 13:28:00,
2013-01-14 07:30:00,20.4,17.2,30.37,West,279,0.0,0.0,87,0.00,,---,0.00,VWS V14.01,2013-01-14 13:30:00,
2013-01-14 07:32:00,20.5,17.2,30.37,West,280,0.0,0.0,87,0.00,,---,0.00,VWS V14.01,2013-01-14 13:32:00,
2013-01-14 07:33:00,20.5,17.2,30.38,West,279,0.0,0.0,87,0.00,,---,0.00,VWS V14.01,2013-01-14 13:33:00,
2013-01-14 07:35:00,20.5,17.2,30.37,West,279,0.0,0.0,87,0.00,,---,0.00,VWS V14.01,2013-01-14 13:35:00,
2013-01-14 07:38:00,20.6,17.4,30.38,West,279,0.0,0.0,87,0.00,,---,0.00,VWS V14.01,2013-01-14 13:38:00,
2013-01-14 07:39:00,20.6,17.6,30.38,West,279,0.0,0.0,88,0.00,,---,0.00,VWS V14.01,2013-01-14 13:39:00,
2013-01-14 07:40:00,20.6,17.6,30.38,West,280,0.0,0.0,88,0.00,,---,0.00,VWS V14.01,2013-01-14 13:40:00,
2013-01-14 07:43:00,20.6,17.4,30.38,West,279,0.0,0.0,87,0.00,,---,0.00,VWS V14.01,2013-01-14 13:43:00,
2013-01-14 07:44:00,20.6,17.4,30.38,West,279,0.0,0.0,87,0.00,,---,0.00,VWS V14.01,2013-01-14 13:44:00,
2013-01-14 07:45:00,20.6,17.4,30.38,West,280,0.0,0.0,87,0.00,,---,0.00,VWS V14.01,2013-01-14 13:45:00,
2013-01-14 07:48:00,20.6,17.4,30.38,West,279,0.0,0.0,87,0.00,,---,0.00,VWS V14.01,2013-01-14 13:48:00,
2013-01-14 07:49:00,20.6,17.4,30.39,West,279,0.0,0.0,87,0.00,,---,0.00,VWS V14.01,2013-01-14 13:49:00,
2013-01-14 07:50:00,20.7,17.5,30.39,West,280,0.0,0.0,87,0.00,,---,0.00,VWS V14.01,2013-01-14 13:50:00,
2013-01-14 07:53:00,20.7,17.5,30.39,West,280,0.0,0.0,87,0.00,,---,0.00,VWS V14.01,2013-01-14 13:53:00,
2013-01-14 07:54:00,20.8,17.5,30.39,West,279,0.0,0.0,87,0.00,,---,0.00,VWS V14.01,2013-01-14 13:54:00,
2013-01-14 07:56:00,20.8,17.5,30.39,West,280,0.0,0.0,87,0.00,,---,0.00,VWS V14.01,2013-01-14 13:56:00,
2013-01-14 07:58:00,20.9,17.6,30.40,West,279,0.0,0.0,87,0.00,,---,0.00,VWS V14.01,2013-01-14 13:58:00,
2013-01-14 07:59:00,20.9,17.6,30.40,West,279,0.0,0.0,87,0.00,,---,0.00,VWS V14.01,2013-01-14 13:59:00,
2013-01-14 08:00:00,20.9,17.6,30.40,West,280,0.0,0.0,87,0.00,,---,0.00,VWS V14.01,2013-01-14 14:00:00,
2013-01-14 08:01:00,21.0,17.8,30.40,West,279,0.0,0.0,87,0.00,,---,0.00,VWS V14.01,2013-01-14 14:01:00,
2013-01-14 08:03:00,21.1,17.8,30.40,West,279,0.0,0.0,87,0.00,,---,0.00,VWS V14.01,2013-01-14 14:03:00,
2013-01-14 08:04:00,21.2,17.9,30.40,West,280,0.0,0.0,87,0.00,,---,0.00,VWS V14.01,2013-01-14 14:04:00,
2013-01-14 08:05:00,21.2,17.9,30.40,West,279,0.0,0.0,87,0.00,,---,0.00,VWS V14.01,2013-01-14 14:05:00,
2013-01-14 08:06:00,21.2,17.9,30.40,West,279,0.0,0.0,87,0.00,,---,0.00,VWS V14.01,2013-01-14 14:06:00,
2013-01-14 08:08:00,21.4,18.1,30.40,West,280,0.0,0.0,87,0.00,,---,0.00,VWS V14.01,2013-01-14 14:08:00,
2013-01-14 08:09:00,21.4,18.1,30.40,West,279,0.0,0.0,87,0.00,,---,0.00,VWS V14.01,2013-01-14 14:09:00,
2013-01-14 08:10:00,21.4,18.1,30.40,West,279,0.0,0.0,87,0.00,,---,0.00,VWS V14.01,2013-01-14 14:10:00,
2013-01-14 08:11:00,21.4,18.1,30.40,West,280,0.0,0.0,87,0.00,,---,0.00,VWS V14.01,2013-01-14 14:11:00,
2013-01-14 08:13:00,21.4,18.1,30.40,West,279,0.0,0.0,87,0.00,,---,0.00,VWS V14.01,2013-01-14 14:13:00,
2013-01-14 08:14:00,21.5,18.2,30.40,West,280,0.0,0.0,87,0.00,,---,0.00,VWS V14.01,2013-01-14 14:14:00,
2013-01-14 08:15:00,21.5,18.2,30.40,West,279,0.0,0.0,87,0.00,,---,0.00,VWS V14.01,2013-01-14 14:15:00,
2013-01-14 08:16:00,21.6,18.3,30.40,West,280,0.0,0.0,87,0.00,,---,0.00,VWS V14.01,2013-01-14 14:16:00,
2013-01-14 08:18:00,21.6,18.3,30.40,West,279,0.0,0.0,87,0.00,,---,0.00,VWS V14.01,2013-01-14 14:18:00,
2013-01-14 08:19:00,21.7,18.4,30.40,West,280,0.0,0.0,87,0.00,,---,0.00,VWS V14.01,2013-01-14 14:19:00,
2013-01-14 08:20:00,21.7,18.4,30.40,West,280,0.0,0.0,87,0.00,,---,0.00,VWS V14.01,2013-01-14 14:20:00,
2013-01-14 08:21:00,21.7,18.4,30.40,West,280,0.0,0.0,87,0.00,,---,0.00,VWS V14.01,2013-01-14 14:21:00,
2013-01-14 08:23:00,21.9,18.6,30.41,West,280,0.0,0.0,87,0.00,,---,0.00,VWS V14.01,2013-01-14 14:23:00,
2013-01-14 08:25:00,22.0,18.7,30.40,West,280,0.0,0.0,87,0.00,,---,0.00,VWS V14.01,2013-01-14 14:25:00,
2013-01-14 08:26:00,22.0,18.5,30.40,West,280,0.0,0.0,86,0.00,,---,0.00,VWS V14.01,2013-01-14 14:26:00,
2013-01-14 08:29:00,22.0,18.5,30.40,West,280,0.0,0.0,86,0.00,,---,0.00,VWS V14.01,2013-01-14 14:29:00,
2013-01-14 08:30:00,22.1,18.8,30.40,West,280,0.0,0.0,87,0.00,,---,0.00,VWS V14.01,2013-01-14 14:30:00,
2013-01-14 08:32:00,22.2,18.9,30.40,West,280,0.0,0.0,87,0.00,,---,0.00,VWS V14.01,2013-01-14 14:32:00,
2013-01-14 08:34:00,22.2,18.7,30.39,West,280,0.0,0.0,86,0.00,,---,0.00,VWS V14.01,2013-01-14 14:34:00,
2013-01-14 08:35:00,22.1,18.6,30.39,West,280,0.0,0.0,86,0.00,,---,0.00,VWS V14.01,2013-01-14 14:35:00,
2013-01-14 08:37:00,22.2,18.7,30.39,West,280,0.0,0.0,86,0.00,,---,0.00,VWS V14.01,2013-01-14 14:37:00,
2013-01-14 08:39:00,22.2,18.7,30.39,West,280,0.0,0.0,86,0.00,,---,0.00,VWS V14.01,2013-01-14 14:39:00,
2013-01-14 08:40:00,22.3,19.0,30.40,West,280,0.0,0.0,87,0.00,,---,0.00,VWS V14.01,2013-01-14 14:40:00,
2013-01-14 08:42:00,22.4,18.9,30.40,West,280,0.0,0.0,86,0.00,,---,0.00,VWS V14.01,2013-01-14 14:42:00,
2013-01-14 08:44:00,22.3,18.8,30.41,NNW,335,0.0,0.0,86,0.00,,---,0.00,VWS V14.01,2013-01-14 14:44:00,
2013-01-14 08:45:00,22.3,18.8,30.41,NW,313,0.0,0.0,86,0.00,,---,0.00,VWS V14.01,2013-01-14 14:45:00,
2013-01-14 08:48:00,22.1,18.3,30.41,NW,325,0.0,0.0,85,0.00,,---,0.00,VWS V14.01,2013-01-14 14:48:00,
2013-01-14 08:49:00,22.2,18.4,30.41,NW,319,0.0,0.0,85,0.00,,---,0.00,VWS V14.01,2013-01-14 14:49:00,
2013-01-14 08:50:00,22.2,18.7,30.42,NNW,335,0.0,0.0,86,0.00,,---,0.00,VWS V14.01,2013-01-14 14:50:00,
2013-01-14 08:53:00,22.4,18.9,30.42,NNW,330,0.0,0.0,86,0.00,,---,0.00,VWS V14.01,2013-01-14 14:53:00,
2013-01-14 08:54:00,22.5,19.0,30.41,NW,314,0.0,0.0,86,0.00,,---,0.00,VWS V14.01,2013-01-14 14:54:00,
2013-01-14 08:55:00,22.5,19.0,30.41,NW,318,0.0,0.0,86,0.00,,---,0.00,VWS V14.01,2013-01-14 14:55:00,
2013-01-14 08:56:00,22.6,18.8,30.41,WNW,303,0.0,0.0,85,0.00,,---,0.00,VWS V14.01,2013-01-14 14:56:00,
2013-01-14 08:58:00,22.6,18.8,30.40,NW,318,0.0,0.0,85,0.00,,---,0.00,VWS V14.01,2013-01-14 14:58:00,
2013-01-14 08:59:00,22.5,18.7,30.40,WNW,296,0.0,0.0,85,0.00,,---,0.00,VWS V14.01,2013-01-14 14:59:00,
2013-01-14 09:00:00,22.5,18.7,30.41,NNW,335,0.0,0.0,85,0.00,,---,0.00,VWS V14.01,2013-01-14 15:00:00,
2013-01-14 09:01:00,22.5,18.4,30.41,NW,310,0.0,0.0,84,0.00,,---,0.00,VWS V14.01,2013-01-14 15:01:00,
2013-01-14 09:03:00,22.5,18.7,30.41,NNW,335,0.0,0.0,85,0.00,,---,0.00,VWS V14.01,2013-01-14 15:03:00,
2013-01-14 09:05:00,22.6,18.8,30.41,NW,320,0.0,0.0,85,0.00,,---,0.00,VWS V14.01,2013-01-14 15:05:00,
2013-01-14 09:06:00,22.6,18.8,30.42,NNW,330,0.0,0.0,85,0.00,,---,0.00,VWS V14.01,2013-01-14 15:06:00,
2013-01-14 09:08:00,22.7,18.9,30.43,NW,325,0.0,0.0,85,0.00,,---,0.00,VWS V14.01,2013-01-14 15:08:00,
2013-01-14 09:10:00,22.8,19.0,30.44,NW,318,0.0,0.0,85,0.00,,---,0.00,VWS V14.01,2013-01-14 15:10:00,
2013-01-14 09:11:00,22.8,19.0,30.44,NW,312,0.0,0.0,85,0.00,,---,0.00,VWS V14.01,2013-01-14 15:11:00,
2013-01-14 09:13:00,23.1,19.5,30.43,NNW,341,0.0,0.0,86,0.00,,---,0.00,VWS V14.01,2013-01-14 15:13:00,
2013-01-14 09:15:00,23.1,19.3,30.43,NW,314,0.0,0.0,85,0.00,,---,0.00,VWS V14.01,2013-01-14 15:15:00,
2013-01-14 09:16:00,23.0,19.2,30.42,NNW,335,0.0,0.0,85,0.00,,---,0.00,VWS V14.01,2013-01-14 15:16:00,
2013-01-14 09:18:00,23.1,19.3,30.42,NW,306,0.0,0.0,85,0.00,,---,0.00,VWS V14.01,2013-01-14 15:18:00,
2013-01-14 09:20:00,23.1,19.0,30.42,NW,316,0.0,0.0,84,0.00,,---,0.00,VWS V14.01,2013-01-14 15:20:00,
2013-01-14 09:21:00,23.1,19.0,30.42,WNW,286,0.0,0.0,84,0.00,,---,0.00,VWS V14.01,2013-01-14 15:21:00,
2013-01-14 09:24:00,23.3,19.5,30.43,WNW,289,0.0,0.0,85,0.00,,---,0.00,VWS V14.01,2013-01-14 15:24:00,
2013-01-14 09:25:00,23.4,19.6,30.43,NW,325,0.0,0.0,85,0.00,,---,0.00,VWS V14.01,2013-01-14 15:25:00,
2013-01-14 09:26:00,23.4,19.6,30.43,West,278,0.0,0.0,85,0.00,,---,0.00,VWS V14.01,2013-01-14 15:26:00,
2013-01-14 09:27:00,23.4,19.3,30.43,NW,307,0.0,0.0,84,0.00,,---,0.00,VWS V14.01,2013-01-14 15:27:00,
2013-01-14 09:29:00,23.4,19.3,30.43,NW,318,0.0,0.0,84,0.00,,---,0.00,VWS V14.01,2013-01-14 15:29:00,
2013-01-14 09:30:00,23.4,19.3,30.42,NW,318,0.0,0.0,84,0.00,,---,0.00,VWS V14.01,2013-01-14 15:30:00,
2013-01-14 09:31:00,23.4,19.3,30.42,NW,318,0.0,0.0,84,0.00,,---,0.00,VWS V14.01,2013-01-14 15:31:00,
2013-01-14 09:32:00,23.3,19.2,30.42,NW,321,0.0,0.0,84,0.00,,---,0.00,VWS V14.01,2013-01-14 15:32:00,
2013-01-14 09:34:00,23.4,19.6,30.42,NNW,347,0.0,0.0,85,0.00,,---,0.00,VWS V14.01,2013-01-14 15:34:00,
2013-01-14 09:35:00,23.5,19.7,30.42,NNW,335,0.0,0.0,85,0.00,,---,0.00,VWS V14.01,2013-01-14 15:35:00,
2013-01-14 09:36:00,23.5,19.7,30.42,NW,316,0.0,0.0,85,0.00,,---,0.00,VWS V14.01,2013-01-14 15:36:00,
2013-01-14 09:37:00,23.5,19.7,30.42,North,349,0.0,0.0,85,0.00,,---,0.00,VWS V14.01,2013-01-14 15:37:00,
2013-01-14 09:39:00,23.6,19.8,30.42,West,278,0.0,0.0,85,0.00,,---,0.00,VWS V14.01,2013-01-14 15:39:00,
2013-01-14 09:40:00,23.6,19.8,30.42,NW,305,0.0,0.0,85,0.00,,---,0.00,VWS V14.01,2013-01-14 15:40:00,
2013-01-14 09:41:00,23.6,19.8,30.41,NW,325,0.0,0.0,85,0.00,,---,0.00,VWS V14.01,2013-01-14 15:41:00,
2013-01-14 09:42:00,23.6,19.8,30.41,WNW,299,0.0,0.0,85,0.00,,---,0.00,VWS V14.01,2013-01-14 15:42:00,
2013-01-14 09:44:00,23.6,19.5,30.41,WNW,296,0.0,0.0,84,0.00,,---,0.00,VWS V14.01,2013-01-14 15:44:00,
2013-01-14 09:46:00,23.6,19.5,30.41,NW,325,0.0,0.0,84,0.00,,---,0.00,VWS V14.01,2013-01-14 15:46:00,
2013-01-14 09:47:00,23.5,19.4,30.41,NNW,340,0.0,0.0,84,0.00,,---,0.00,VWS V14.01,2013-01-14 15:47:00,
2013-01-14 09:50:00,23.5,19.4,30.42,NW,325,0.0,0.0,84,0.00,,---,0.00,VWS V14.01,2013-01-14 15:50:00,
2013-01-14 09:51:00,23.5,19.4,30.42,NNW,339,0.0,0.0,84,0.00,,---,0.00,VWS V14.01,2013-01-14 15:51:00,
2013-01-14 09:52:00,23.5,19.4,30.42,NW,307,0.0,0.0,84,0.00,,---,0.00,VWS V14.01,2013-01-14 15:52:00,
2013-01-14 09:55:00,23.8,20.0,30.43,WNW,286,0.0,0.0,85,0.00,,---,0.00,VWS V14.01,2013-01-14 15:55:00,
2013-01-14 09:56:00,23.8,20.0,30.43,WNW,286,0.0,0.0,85,0.00,,---,0.00,VWS V14.01,2013-01-14 15:56:00,
2013-01-14 09:57:00,23.8,20.0,30.42,NW,306,0.0,0.0,85,0.00,,---,0.00,VWS V14.01,2013-01-14 15:57:00,
2013-01-14 10:00:00,23.8,20.0,30.42,NW,315,0.0,0.0,85,0.00,,---,0.00,VWS V14.01,2013-01-14 16:00:00,
2013-01-14 10:01:00,23.8,19.7,30.42,WNW,287,0.0,0.0,84,0.00,,---,0.00,VWS V14.01,2013-01-14 16:01:00,
2013-01-14 10:02:00,23.8,19.7,30.42,NW,325,0.0,0.0,84,0.00,,---,0.00,VWS V14.01,2013-01-14 16:02:00,
2013-01-14 10:06:00,23.9,20.1,30.42,NNW,335,0.0,0.0,85,0.00,,---,0.00,VWS V14.01,2013-01-14 16:06:00,
2013-01-14 10:07:00,24.0,20.1,30.43,NNW,330,0.0,0.0,85,0.00,,---,0.00,VWS V14.01,2013-01-14 16:07:00,
2013-01-14 10:08:00,24.1,20.2,30.43,NW,320,0.0,0.0,85,0.00,,---,0.00,VWS V14.01,2013-01-14 16:08:00,
2013-01-14 10:11:00,24.1,20.0,30.44,WNW,295,0.0,0.0,84,0.00,,---,0.00,VWS V14.01,2013-01-14 16:11:00,
2013-01-14 10:12:00,24.1,20.0,30.44,WNW,302,0.0,0.0,84,0.00,,---,0.00,VWS V14.01,2013-01-14 16:12:00,
2013-01-14 10:13:00,24.1,20.0,30.44,West,272,0.0,0.0,84,0.00,,---,0.00,VWS V14.01,2013-01-14 16:13:00,
2013-01-14 10:16:00,24.2,20.1,30.44,West,278,0.0,0.0,84,0.00,,---,0.00,VWS V14.01,2013-01-14 16:16:00,
2013-01-14 10:17:00,24.2,20.1,30.44,WNW,295,0.0,0.0,84,0.00,,---,0.00,VWS V14.01,2013-01-14 16:17:00,
2013-01-14 10:18:00,24.2,19.8,30.43,NW,314,0.0,0.0,83,0.00,,---,0.00,VWS V14.01,2013-01-14 16:18:00,
2013-01-14 10:21:00,24.2,19.8,30.42,NW,321,0.0,0.0,83,0.00,,---,0.00,VWS V14.01,2013-01-14 16:21:00,
2013-01-14 10:22:00,24.3,20.2,30.42,NNW,330,0.0,0.0,84,0.00,,---,0.00,VWS V14.01,2013-01-14 16:22:00,
2013-01-14 10:23:00,24.3,20.2,30.43,WNW,289,0.0,0.0,84,0.00,,---,0.00,VWS V14.01,2013-01-14 16:23:00,
2013-01-14 10:26:00,24.4,20.3,30.43,NW,325,0.0,0.0,84,0.00,,---,0.00,VWS V14.01,2013-01-14 16:26:00,
2013-01-14 10:27:00,24.5,20.4,30.42,NW,306,0.0,0.0,84,0.00,,---,0.00,VWS V14.01,2013-01-14 16:27:00,
2013-01-14 10:28:00,24.6,20.5,30.42,WNW,297,0.0,0.0,84,0.00,,---,0.00,VWS V14.01,2013-01-14 16:28:00,
2013-01-14 10:30:00,24.6,20.5,30.42,NNW,335,0.0,0.0,84,0.00,,---,0.00,VWS V14.01,2013-01-14 16:30:00,
2013-01-14 10:31:00,24.6,19.9,30.42,NW,314,0.0,0.0,82,0.00,,---,0.00,VWS V14.01,2013-01-14 16:31:00,
2013-01-14 10:32:00,24.6,19.9,30.42,NW,325,0.0,0.0,82,0.00,,---,0.00,VWS V14.01,2013-01-14 16:32:00,
2013-01-14 10:34:00,24.8,20.4,30.42,NNW,340,0.0,0.0,83,0.00,,---,0.00,VWS V14.01,2013-01-14 16:34:00,
2013-01-14 10:36:00,24.9,20.2,30.42,NW,313,11.0,13.0,82,0.00,,---,0.00,VWS V14.01,2013-01-14 16:36:00,
2013-01-14 10:37:00,24.8,19.8,30.42,NNW,330,10.0,13.0,81,0.00,,---,0.00,VWS V14.01,2013-01-14 16:37:00,
2013-01-14 10:38:00,24.8,19.8,30.41,North,355,7.0,13.0,81,0.00,,---,0.00,VWS V14.01,2013-01-14 16:38:00,
2013-01-14 10:39:00,25.0,20.3,30.41,NW,308,7.0,13.0,82,0.00,,---,0.00,VWS V14.01,2013-01-14 16:39:00,
2013-01-14 10:41:00,25.1,20.4,30.41,NNW,341,9.0,14.0,82,0.00,,---,0.00,VWS V14.01,2013-01-14 16:41:00,
2013-01-14 10:42:00,25.1,20.1,30.41,NW,320,8.0,14.0,81,0.00,,---,0.00,VWS V14.01,2013-01-14 16:42:00,
2013-01-14 10:43:00,25.1,20.1,30.41,WNW,287,6.0,14.0,81,0.00,,---,0.00,VWS V14.01,2013-01-14 16:43:00,
2013-01-14 10:44:00,25.1,20.1,30.41,NW,325,4.0,14.0,81,0.00,,---,0.00,VWS V14.01,2013-01-14 16:44:00,
2013-01-14 10:46:00,25.1,20.4,30.41,NW,315,7.0,14.0,82,0.00,,---,0.00,VWS V14.01,2013-01-14 16:46:00,
2013-01-14 10:47:00,25.1,20.1,30.42,NW,312,10.0,14.0,81,0.00,,---,0.00,VWS V14.01,2013-01-14 16:47:00,
2013-01-14 10:48:00,25.0,20.0,30.42,NNW,339,8.0,14.0,81,0.00,,---,0.00,VWS V14.01,2013-01-14 16:48:00,
2013-01-14 10:49:00,25.0,20.0,30.42,NW,325,9.0,14.0,81,0.00,,---,0.00,VWS V14.01,2013-01-14 16:49:00,
2013-01-14 10:51:00,24.8,19.5,30.43,WNW,294,9.0,14.0,80,0.00,,---,0.00,VWS V14.01,2013-01-14 16:51:00,
2013-01-14 10:52:00,24.8,19.2,30.43,NNW,330,8.0,14.0,79,0.00,,---,0.00,VWS V14.01,2013-01-14 16:52:00,
2013-01-14 10:53:00,24.8,19.5,30.43,NNW,330,8.0,14.0,80,0.00,,---,0.00,VWS V14.01,2013-01-14 16:53:00,
2013-01-14 10:54:00,24.7,19.4,30.43,NNW,335,7.0,14.0,80,0.00,,---,0.00,VWS V14.01,2013-01-14 16:54:00,
2013-01-14 10:56:00,24.7,19.4,30.44,NW,325,9.0,14.0,80,0.00,,---,0.00,VWS V14.01,2013-01-14 16:56:00,
2013-01-14 10:57:00,24.7,19.4,30.44,NW,317,4.0,14.0,80,0.00,,---,0.00,VWS V14.01,2013-01-14 16:57:00,
2013-01-14 10:58:00,24.8,19.5,30.44,NW,308,2.0,5.0,80,0.00,,---,0.00,VWS V14.01,2013-01-14 16:58:00,
2013-01-14 10:59:00,24.8,19.5,30.44,WNW,299,4.0,6.0,80,0.00,,---,0.00,VWS V14.01,2013-01-14 16:59:00,
2013-01-14 11:00:00,24.7,19.4,30.44,NW,325,5.0,14.0,80,0.00,,---,0.00,VWS V14.01,2013-01-14 17:00:00,
2013-01-14 11:02:00,24.9,19.6,30.44,NW,325,7.0,8.0,80,0.00,,---,0.00,VWS V14.01,2013-01-14 17:02:00,
2013-01-14 11:03:00,24.9,19.6,30.44,NW,325,4.0,8.0,80,0.00,,---,0.00,VWS V14.01,2013-01-14 17:03:00,
2013-01-14 11:04:00,24.9,19.6,30.44,WNW,299,8.0,8.0,80,0.00,,---,0.00,VWS V14.01,2013-01-14 17:04:00,
2013-01-14 11:07:00,24.8,19.5,30.44,NW,314,6.0,8.0,80,0.00,,---,0.00,VWS V14.01,2013-01-14 17:07:00,
2013-01-14 11:08:00,24.9,19.6,30.44,NW,320,6.0,8.0,80,0.00,,---,0.00,VWS V14.01,2013-01-14 17:08:00,
2013-01-14 11:09:00,24.9,19.6,30.44,NW,310,5.0,8.0,80,0.00,,---,0.00,VWS V14.01,2013-01-14 17:09:00,
2013-01-14 11:12:00,24.9,19.6,30.44,NW,308,8.0,10.0,80,0.00,,---,0.00,VWS V14.01,2013-01-14 17:12:00,
2013-01-14 11:13:00,24.9,19.3,30.44,WNW,303,7.0,10.0,79,0.00,,---,0.00,VWS V14.01,2013-01-14 17:13:00,
2013-01-14 11:14:00,24.9,19.3,30.44,NW,304,5.0,10.0,79,0.00,,---,0.00,VWS V14.01,2013-01-14 17:14:00,
2013-01-14 11:17:00,25.1,19.5,30.44,WNW,302,4.0,10.0,79,0.00,,---,0.00,VWS V14.01,2013-01-14 17:17:00,
2013-01-14 11:18:00,25.2,19.9,30.44,WNW,285,2.0,10.0,80,0.00,,---,0.00,VWS V14.01,2013-01-14 17:18:00,
2013-01-14 11:19:00,25.3,19.7,30.44,WNW,294,3.0,10.0,79,0.00,,---,0.00,VWS V14.01,2013-01-14 17:19:00,
2013-01-14 11:23:00,25.3,19.7,30.43,WNW,293,8.0,10.0,79,0.00,,---,0.00,VWS V14.01,2013-01-14 17:23:00,
2013-01-14 11:24:00,25.4,19.8,30.43,WNW,294,6.0,10.0,79,0.00,,---,0.00,VWS V14.01,2013-01-14 17:24:00,
2013-01-14 11:25:00,25.3,19.7,30.43,NNW,346,4.0,10.0,79,0.00,,---,0.00,VWS V14.01,2013-01-14 17:25:00,
2013-01-14 11:28:00,25.3,19.7,30.43,NNW,343,7.0,10.0,79,0.00,,---,0.00,VWS V14.01,2013-01-14 17:28:00,
2013-01-14 11:29:00,25.3,19.4,30.43,NW,310,7.0,7.0,78,0.00,,---,0.00,VWS V14.01,2013-01-14 17:29:00,
2013-01-14 11:30:00,25.2,19.6,30.43,WNW,288,7.0,8.0,79,0.00,,---,0.00,VWS V14.01,2013-01-14 17:30:00,
2013-01-14 11:33:00,25.3,19.7,30.43,NW,308,4.0,9.0,79,0.00,,---,0.00,VWS V14.01,2013-01-14 17:33:00,
2013-01-14 11:34:00,25.3,20.0,30.42,WNW,287,5.0,9.0,80,0.00,,---,0.00,VWS V14.01,2013-01-14 17:34:00,
2013-01-14 11:35:00,25.4,20.4,30.43,WNW,296,7.0,9.0,81,0.00,,---,0.00,VWS V14.01,2013-01-14 17:35:00,
2013-01-14 11:38:00,25.4,20.4,30.43,WNW,299,5.0,10.0,81,0.00,,---,0.00,VWS V14.01,2013-01-14 17:38:00,
2013-01-14 11:39:00,25.4,20.1,30.44,NW,305,8.0,10.0,80,0.00,,---,0.00,VWS V14.01,2013-01-14 17:39:00,
2013-01-14 11:40:00,25.4,20.1,30.44,NW,310,7.0,10.0,80,0.00,,---,0.00,VWS V14.01,2013-01-14 17:40:00,
2013-01-14 11:43:00,25.3,20.0,30.45,West,281,6.0,10.0,80,0.00,,---,0.00,VWS V14.01,2013-01-14 17:43:00,
2013-01-14 11:44:00,25.4,20.1,30.45,NW,316,6.0,10.0,80,0.00,,---,0.00,VWS V14.01,2013-01-14 17:44:00,
2013-01-14 11:45:00,25.4,20.4,30.45,WNW,287,3.0,10.0,81,0.00,,---,0.00,VWS V14.01,2013-01-14 17:45:00,
2013-01-14 11:48:00,25.5,20.5,30.46,WNW,300,5.0,11.0,81,0.00,,---,0.00,VWS V14.01,2013-01-14 17:48:00,
2013-01-14 11:49:00,25.5,20.5,30.46,NW,314,5.0,11.0,81,0.00,,---,0.00,VWS V14.01,2013-01-14 17:49:00,
2013-01-14 11:50:00,25.5,20.2,30.46,WNW,301,11.0,11.0,80,0.00,,---,0.00,VWS V14.01,2013-01-14 17:50:00,
2013-01-14 11:53:00,25.5,20.5,30.46,WNW,298,5.0,11.0,81,0.00,,---,0.00,VWS V14.01,2013-01-14 17:53:00,
2013-01-14 11:54:00,25.5,20.5,30.46,NW,314,5.0,11.0,81,0.00,,---,0.00,VWS V14.01,2013-01-14 17:54:00,
2013-01-14 11:55:00,25.5,20.5,30.46,West,281,8.0,11.0,81,0.00,,---,0.00,VWS V14.01,2013-01-14 17:55:00,
2013-01-14 11:56:00,25.5,20.5,30.46,West,274,6.0,11.0,81,0.00,,---,0.00,VWS V14.01,2013-01-14 17:56:00,
2013-01-14 11:58:00,25.5,20.5,30.45,West,277,3.0,5.0,81,0.00,,---,0.00,VWS V14.01,2013-01-14 17:58:00,
2013-01-14 11:59:00,25.5,20.5,30.45,WNW,291,4.0,5.0,81,0.00,,---,0.00,VWS V14.01,2013-01-14 17:59:00,
2013-01-14 12:00:00,25.5,20.5,30.45,WNW,289,4.0,8.0,81,0.00,,---,0.00,VWS V14.01,2013-01-14 18:00:00,
2013-01-14 12:01:00,25.5,20.5,30.45,NNW,335,9.0,9.0,81,0.00,,---,0.00,VWS V14.01,2013-01-14 18:01:00,
2013-01-14 12:04:00,25.5,20.5,30.45,WNW,298,6.0,9.0,81,0.00,,---,0.00,VWS V14.01,2013-01-14 18:04:00,
2013-01-14 12:05:00,25.5,20.5,30.46,NW,312,6.0,9.0,81,0.00,,---,0.00,VWS V14.01,2013-01-14 18:05:00,
2013-01-14 12:06:00,25.5,20.5,30.46,NW,325,5.0,9.0,81,0.00,,---,0.00,VWS V14.01,2013-01-14 18:06:00,
2013-01-14 12:09:00,25.5,20.2,30.47,NW,314,2.0,9.0,80,0.00,,---,0.00,VWS V14.01,2013-01-14 18:09:00,
2013-01-14 12:10:00,25.4,20.1,30.46,NNW,335,2.0,9.0,80,0.00,,---,0.00,VWS V14.01,2013-01-14 18:10:00,
2013-01-14 12:11:00,25.5,20.2,30.46,North,351,2.0,9.0,80,0.00,,---,0.00,VWS V14.01,2013-01-14 18:11:00,
2013-01-14 12:14:00,25.4,20.1,30.45,North,8,3.0,9.0,80,0.00,,---,0.00,VWS V14.01,2013-01-14 18:14:00,
2013-01-14 12:15:00,25.4,20.1,30.45,NE,37,4.0,9.0,80,0.00,,---,0.00,VWS V14.01,2013-01-14 18:15:00,
2013-01-14 12:16:00,25.4,20.1,30.45,NNE,30,4.0,9.0,80,0.00,,---,0.00,VWS V14.01,2013-01-14 18:16:00,
2013-01-14 12:19:00,25.4,20.1,30.44,North,352,3.0,9.0,80,0.00,,---,0.00,VWS V14.01,2013-01-14 18:19:00,
2013-01-14 12:20:00,25.4,20.1,30.44,NW,318,2.0,9.0,80,0.00,,---,0.00,VWS V14.01,2013-01-14 18:20:00,
2013-01-14 12:21:00,25.4,19.8,30.44,NNW,343,3.0,9.0,79,0.00,,---,0.00,VWS V14.01,2013-01-14 18:21:00,
2013-01-14 12:24:00,25.4,20.1,30.44,WNW,293,4.0,9.0,80,0.00,,---,0.00,VWS V14.01,2013-01-14 18:24:00,
2013-01-14 12:25:00,25.5,20.2,30.44,West,268,3.0,9.0,80,0.00,,---,0.00,VWS V14.01,2013-01-14 18:25:00,
2013-01-14 12:26:00,25.6,20.3,30.44,WNW,299,5.0,9.0,80,0.00,,---,0.00,VWS V14.01,2013-01-14 18:26:00,
2013-01-14 12:29:00,25.7,20.4,30.43,NW,304,5.0,7.0,80,0.00,,---,0.00,VWS V14.01,2013-01-14 18:29:00,
2013-01-14 12:30:00,25.8,20.5,30.43,NW,308,4.0,7.0,80,0.00,,---,0.00,VWS V14.01,2013-01-14 18:30:00,
2013-01-14 12:32:00,26.1,21.4,30.43,WNW,293,7.0,8.0,82,0.00,,---,0.00,VWS V14.01,2013-01-14 18:32:00,
2013-01-14 12:34:00,26.1,20.5,30.43,NW,319,5.0,11.0,79,0.00,,---,0.00,VWS V14.01,2013-01-14 18:34:00,
2013-01-14 12:35:00,26.1,20.5,30.43,NW,325,4.0,11.0,79,0.00,,---,0.00,VWS V14.01,2013-01-14 18:35:00,
2013-01-14 12:37:00,26.1,20.5,30.43,NW,325,7.0,11.0,79,0.00,,---,0.00,VWS V14.01,2013-01-14 18:37:00,
2013-01-14 12:39:00,26.0,20.1,30.43,NNW,335,8.0,12.0,78,0.00,,---,0.00,VWS V14.01,2013-01-14 18:39:00,
2013-01-14 12:40:00,26.0,20.1,30.43,NW,320,6.0,12.0,78,0.00,,---,0.00,VWS V14.01,2013-01-14 18:40:00,
2013-01-14 12:42:00,26.0,20.1,30.42,NW,325,9.0,12.0,78,0.00,,---,0.00,VWS V14.01,2013-01-14 18:42:00,
2013-01-14 12:44:00,26.0,20.1,30.42,NNW,335,7.0,12.0,78,0.00,,---,0.00,VWS V14.01,2013-01-14 18:44:00,
2013-01-14 12:45:00,25.9,20.0,30.42,NW,318,8.0,12.0,78,0.00,,---,0.00,VWS V14.01,2013-01-14 18:45:00,
2013-01-14 12:47:00,25.9,20.0,30.41,NNW,330,6.0,12.0,78,0.00,,---,0.00,VWS V14.01,2013-01-14 18:47:00,
2013-01-14 12:50:00,25.9,20.0,30.41,WNW,299,10.0,12.0,78,0.00,,---,0.00,VWS V14.01,2013-01-14 18:50:00,
2013-01-14 12:51:00,25.9,20.0,30.41,NW,304,9.0,12.0,78,0.00,,---,0.00,VWS V14.01,2013-01-14 18:51:00,
2013-01-14 12:52:00,25.9,20.3,30.41,West,262,6.0,12.0,79,0.00,,---,0.00,VWS V14.01,2013-01-14 18:52:00,
2013-01-14 12:55:00,25.9,20.3,30.41,NW,325,10.0,12.0,79,0.00,,---,0.00,VWS V14.01,2013-01-14 18:55:00,
2013-01-14 12:56:00,25.9,20.0,30.41,NW,314,7.0,12.0,78,0.00,,---,0.00,VWS V14.01,2013-01-14 18:56:00,
2013-01-14 12:57:00,25.9,20.0,30.41,NNW,335,5.0,12.0,78,0.00,,---,0.00,VWS V14.01,2013-01-14 18:57:00,
2013-01-14 13:00:00,26.1,20.8,30.42,NNW,335,6.0,8.0,80,0.00,,---,0.00,VWS V14.01,2013-01-14 19:00:00,
2013-01-14 13:01:00,26.1,20.8,30.41,NW,315,7.0,8.0,80,0.00,,---,0.00,VWS V14.01,2013-01-14 19:01:00,
2013-01-14 13:02:00,26.2,20.6,30.41,WNW,296,5.0,8.0,79,0.00,,---,0.00,VWS V14.01,2013-01-14 19:02:00,
2013-01-14 13:05:00,26.2,20.9,30.41,WNW,283,1.0,8.0,80,0.00,,---,0.00,VWS V14.01,2013-01-14 19:05:00,
2013-01-14 13:06:00,26.3,21.0,30.41,WNW,282,5.0,8.0,80,0.00,,---,0.00,VWS V14.01,2013-01-14 19:06:00,
2013-01-14 13:07:00,26.3,20.7,30.41,NW,310,5.0,8.0,79,0.00,,---,0.00,VWS V14.01,2013-01-14 19:07:00,
2013-01-14 13:10:00,26.2,20.6,30.40,NNW,344,7.0,9.0,79,0.00,,---,0.00,VWS V14.01,2013-01-14 19:10:00,
2013-01-14 13:11:00,26.2,20.6,30.40,NNW,335,6.0,10.0,79,0.00,,---,0.00,VWS V14.01,2013-01-14 19:11:00,
2013-01-14 13:13:00,26.4,21.4,30.39,NW,325,10.0,10.0,81,0.00,,---,0.00,VWS V14.01,2013-01-14 19:13:00,
2013-01-14 13:15:00,26.3,20.7,30.39,NW,320,4.0,14.0,79,0.00,,---,0.00,VWS V14.01,2013-01-14 19:15:00,
2013-01-14 13:16:00,26.3,20.7,30.39,NW,311,5.0,14.0,79,0.00,,---,0.00,VWS V14.01,2013-01-14 19:16:00,
2013-01-14 13:18:00,26.3,21.0,30.39,NW,314,6.0,14.0,80,0.00,,---,0.00,VWS V14.01,2013-01-14 19:18:00,
2013-01-14 13:20:00,26.4,21.1,30.38,NW,319,8.0,14.0,80,0.00,,---,0.00,VWS V14.01,2013-01-14 19:20:00,
2013-01-14 13:21:00,26.4,21.1,30.38,NW,311,6.0,14.0,80,0.00,,---,0.00,VWS V14.01,2013-01-14 19:21:00,
2013-01-14 13:23:00,26.3,20.7,30.38,NW,314,7.0,14.0,79,0.00,,---,0.00,VWS V14.01,2013-01-14 19:23:00,
2013-01-14 13:25:00,26.3,21.0,30.38,WNW,290,10.0,14.0,80,0.00,,---,0.00,VWS V14.01,2013-01-14 19:25:00,
2013-01-14 13:26:00,26.3,21.0,30.38,West,278,5.0,14.0,80,0.00,,---,0.00,VWS V14.01,2013-01-14 19:26:00,
2013-01-14 13:27:00,26.4,21.1,30.38,NW,325,10.0,14.0,80,0.00,,---,0.00,VWS V14.01,2013-01-14 19:27:00,
2013-01-14 13:28:00,26.3,20.7,30.39,NNW,335,10.0,10.0,79,0.00,,---,0.00,VWS V14.01,2013-01-14 19:28:00,
2013-01-14 13:30:00,26.3,20.7,30.38,NW,318,7.0,14.0,79,0.00,,---,0.00,VWS V14.01,2013-01-14 19:30:00,
2013-01-14 13:31:00,26.3,20.7,30.39,NNW,335,5.0,10.0,79,0.00,,---,0.00,VWS V14.01,2013-01-14 19:31:00,
2013-01-14 13:32:00,26.3,20.7,30.39,WNW,296,8.0,11.0,79,0.00,,---,0.00,VWS V14.01,2013-01-14 19:32:00,
2013-01-14 13:34:00,26.3,20.7,30.39,NW,325,9.0,12.0,79,0.00,,---,0.00,VWS V14.01,2013-01-14 19:34:00,
2013-01-14 13:36:00,26.3,20.4,30.38,NW,316,7.0,12.0,78,0.00,,---,0.00,VWS V14.01,2013-01-14 19:36:00,
2013-01-14 13:37:00,26.2,20.3,30.38,NNW,330,6.0,12.0,78,0.00,,---,0.00,VWS V14.01,2013-01-14 19:37:00,
2013-01-14 13:39:00,26.2,20.3,30.38,NNW,335,6.0,13.0,78,0.00,,---,0.00,VWS V14.01,2013-01-14 19:39:00,
2013-01-14 13:41:00,26.2,20.3,30.38,WNW,301,6.0,13.0,78,0.00,,---,0.00,VWS V14.01,2013-01-14 19:41:00,
2013-01-14 13:42:00,26.3,20.7,30.38,NNW,339,11.0,14.0,79,0.00,,---,0.00,VWS V14.01,2013-01-14 19:42:00,
2013-01-14 13:44:00,26.2,20.3,30.38,NW,325,10.0,16.0,78,0.00,,---,0.00,VWS V14.01,2013-01-14 19:44:00,
2013-01-14 13:46:00,26.2,20.0,30.39,West,275,10.0,16.0,77,0.00,,---,0.00,VWS V14.01,2013-01-14 19:46:00,
2013-01-14 13:47:00,26.2,20.0,30.39,WNW,299,8.0,16.0,77,0.00,,---,0.00,VWS V14.01,2013-01-14 19:47:00,
2013-01-14 13:49:00,26.2,20.0,30.38,NNW,335,5.0,16.0,77,0.00,,---,0.00,VWS V14.01,2013-01-14 19:49:00,
2013-01-14 13:51:00,26.3,20.4,30.37,NW,313,11.0,16.0,78,0.00,,---,0.00,VWS V14.01,2013-01-14 19:51:00,
2013-01-14 13:52:00,26.3,20.4,30.37,NW,318,6.0,16.0,78,0.00,,---,0.00,VWS V14.01,2013-01-14 19:52:00,
2013-01-14 13:54:00,26.5,20.9,30.36,NNW,347,8.0,16.0,79,0.00,,---,0.00,VWS V14.01,2013-01-14 19:54:00,
2013-01-14 13:56:00,26.5,20.6,30.37,North,2,10.0,16.0,78,0.00,,---,0.00,VWS V14.01,2013-01-14 19:56:00,
2013-01-14 13:57:00,26.4,20.5,30.37,NNW,335,11.0,16.0,78,0.00,,---,0.00,VWS V14.01,2013-01-14 19:57:00,
2013-01-14 13:58:00,26.4,20.5,30.37,NNW,335,9.0,9.0,78,0.00,,---,0.00,VWS V14.01,2013-01-14 19:58:00,
2013-01-14 13:59:00,26.3,20.4,30.37,NW,306,11.0,11.0,78,0.00,,---,0.00,VWS V14.01,2013-01-14 19:59:00,
2013-01-14 14:00:00,26.4,20.5,30.37,NNW,341,9.0,16.0,78,0.00,,---,0.00,VWS V14.01,2013-01-14 20:00:00,
2013-01-14 14:01:00,26.3,20.7,30.37,NW,325,10.0,12.0,79,0.00,,---,0.00,VWS V14.01,2013-01-14 20:01:00,
2013-01-14 14:02:00,26.4,21.1,30.37,NNW,330,8.0,12.0,80,0.00,,---,0.00,VWS V14.01,2013-01-14 20:02:00,
2013-01-14 14:03:00,26.4,21.1,30.37,North,359,10.0,12.0,80,0.00,,---,0.00,VWS V14.01,2013-01-14 20:03:00,
2013-01-14 14:04:00,26.4,21.1,30.37,NNW,335,6.0,12.0,80,0.00,,---,0.00,VWS V14.01,2013-01-14 20:04:00,
2013-01-14 14:06:00,26.4,21.4,30.37,WNW,301,9.0,12.0,81,0.00,,---,0.00,VWS V14.01,2013-01-14 20:06:00,
2013-01-14 14:07:00,26.4,21.4,30.37,NNW,335,6.0,12.0,81,0.00,,---,0.00,VWS V14.01,2013-01-14 20:07:00,
2013-01-14 14:08:00,26.4,21.4,30.37,NW,325,11.0,12.0,81,0.00,,---,0.00,VWS V14.01,2013-01-14 20:08:00,
2013-01-14 14:09:00,26.4,21.4,30.37,NNE,18,8.0,13.0,81,0.00,,---,0.00,VWS V14.01,2013-01-14 20:09:00,
2013-01-14 14:11:00,26.3,21.3,30.38,NW,315,9.0,13.0,81,0.00,,---,0.00,VWS V14.01,2013-01-14 20:11:00,
2013-01-14 14:13:00,26.2,21.2,30.38,NNW,347,9.0,13.0,81,0.00,,---,0.00,VWS V14.01,2013-01-14 20:13:00,
2013-01-14 14:15:00,26.3,21.6,30.38,WNW,291,5.0,13.0,82,0.00,,---,0.00,VWS V14.01,2013-01-14 20:15:00,
2013-01-14 14:16:00,26.5,21.8,30.38,NNW,341,5.0,13.0,82,0.00,,---,0.00,VWS V14.01,2013-01-14 20:16:00,
2013-01-14 14:18:00,26.7,22.0,30.38,North,350,8.0,13.0,82,0.00,,---,0.00,VWS V14.01,2013-01-14 20:18:00,
2013-01-14 14:19:00,26.8,22.0,30.38,NNW,335,3.0,13.0,82,0.00,,---,0.00,VWS V14.01,2013-01-14 20:19:00,
2013-01-14 14:20:00,26.9,22.1,30.38,NW,320,10.0,13.0,82,0.00,,---,0.00,VWS V14.01,2013-01-14 20:20:00,
2013-01-14 14:22:00,27.1,22.4,30.38,WNW,287,5.0,13.0,82,0.00,,---,0.00,VWS V14.01,2013-01-14 20:22:00,
2013-01-14 14:23:00,27.0,22.0,30.39,WNW,303,5.0,13.0,81,0.00,,---,0.00,VWS V14.01,2013-01-14 20:23:00,
2013-01-14 14:24:00,27.1,22.1,30.39,WNW,302,5.0,13.0,81,0.00,,---,0.00,VWS V14.01,2013-01-14 20:24:00,
2013-01-14 14:25:00,27.1,22.4,30.39,NNW,335,7.0,13.0,82,0.00,,---,0.00,VWS V14.01,2013-01-14 20:25:00,
2013-01-14 14:27:00,27.1,22.1,30.39,NW,304,8.0,13.0,81,0.00,,---,0.00,VWS V14.01,2013-01-14 20:27:00,
2013-01-14 14:28:00,27.0,22.0,30.39,NNW,347,9.0,13.0,81,0.00,,---,0.00,VWS V14.01,2013-01-14 20:28:00,
2013-01-14 14:29:00,26.9,21.6,30.39,North,354,8.0,13.0,80,0.00,,---,0.00,VWS V14.01,2013-01-14 20:29:00,
2013-01-14 14:30:00,26.8,21.5,30.39,NNW,340,4.0,13.0,80,0.00,,---,0.00,VWS V14.01,2013-01-14 20:30:00,
2013-01-14 14:32:00,26.9,21.9,30.38,NNW,345,3.0,13.0,81,0.00,,---,0.00,VWS V14.01,2013-01-14 20:32:00,
2013-01-14 14:34:00,27.0,22.0,30.38,NW,325,6.0,13.0,81,0.00,,---,0.00,VWS V14.01,2013-01-14 20:34:00,
2013-01-14 14:35:00,27.1,22.1,30.39,NW,318,9.0,13.0,81,0.00,,---,0.00,VWS V14.01,2013-01-14 20:35:00,
2013-01-14 14:37:00,27.0,21.7,30.39,NNW,335,7.0,13.0,80,0.00,,---,0.00,VWS V14.01,2013-01-14 20:37:00,
2013-01-14 14:39:00,27.0,21.7,30.39,NW,320,7.0,13.0,80,0.00,,---,0.00,VWS V14.01,2013-01-14 20:39:00,
2013-01-14 14:40:00,27.1,21.5,30.38,NW,317,9.0,13.0,79,0.00,,---,0.00,VWS V14.01,2013-01-14 20:40:00,
2013-01-14 14:42:00,27.3,22.0,30.38,NNW,335,5.0,13.0,80,0.00,,---,0.00,VWS V14.01,2013-01-14 20:42:00,
2013-01-14 14:44:00,27.5,22.1,30.38,NW,315,6.0,13.0,80,0.00,,---,0.00,VWS V14.01,2013-01-14 20:44:00,
2013-01-14 14:45:00,27.6,22.2,30.38,WNW,301,7.0,13.0,80,0.00,,---,0.00,VWS V14.01,2013-01-14 20:45:00,
2013-01-14 14:47:00,27.4,21.5,30.38,NW,325,11.0,13.0,78,0.00,,---,0.00,VWS V14.01,2013-01-14 20:47:00,
2013-01-14 14:49:00,27.3,21.1,30.38,North,6,6.0,13.0,77,0.00,,---,0.00,VWS V14.01,2013-01-14 20:49:00,
2013-01-14 14:50:00,27.4,21.8,30.38,NW,325,6.0,13.0,79,0.00,,---,0.00,VWS V14.01,2013-01-14 20:50:00,
2013-01-14 14:52:00,27.7,22.4,30.38,NNW,345,10.0,13.0,80,0.00,,---,0.00,VWS V14.01,2013-01-14 20:52:00,
2013-01-14 14:54:00,27.5,21.5,30.38,WNW,291,9.0,13.0,78,0.00,,---,0.00,VWS V14.01,2013-01-14 20:54:00,
2013-01-14 14:55:00,27.5,21.5,30.38,NW,318,9.0,13.0,78,0.00,,---,0.00,VWS V14.01,2013-01-14 20:55:00,
2013-01-14 14:57:00,27.5,21.5,30.38,NW,319,9.0,14.0,78,0.00,,---,0.00,VWS V14.01,2013-01-14 20:57:00,
2013-01-14 14:59:00,27.4,21.1,30.38,WNW,293,7.0,10.0,77,0.00,,---,0.00,VWS V14.01,2013-01-14 20:59:00,
2013-01-14 15:00:00,27.4,21.1,30.38,NW,320,6.0,10.0,77,0.00,,---,0.00,VWS V14.01,2013-01-14 21:00:00,
2013-01-14 15:02:00,27.6,21.6,30.38,NW,318,12.0,12.0,78,0.00,,---,0.00,VWS V14.01,2013-01-14 21:02:00,
2013-01-14 15:05:00,27.6,21.4,30.38,NNW,341,8.0,13.0,77,0.00,,---,0.00,VWS V14.01,2013-01-14 21:05:00,
2013-01-14 15:06:00,27.6,21.4,30.38,North,360,10.0,13.0,77,0.00,,---,0.00,VWS V14.01,2013-01-14 21:06:00,
2013-01-14 15:07:00,27.5,20.9,30.38,NNW,339,8.0,13.0,76,0.00,,---,0.00,VWS V14.01,2013-01-14 21:07:00,
2013-01-14 15:10:00,27.6,21.0,30.38,WNW,289,6.0,13.0,76,0.00,,---,0.00,VWS V14.01,2013-01-14 21:10:00,
2013-01-14 15:11:00,27.6,21.4,30.38,WNW,297,8.0,13.0,77,0.00,,---,0.00,VWS V14.01,2013-01-14 21:11:00,
2013-01-14 15:12:00,27.6,21.4,30.38,WNW,286,6.0,13.0,77,0.00,,---,0.00,VWS V14.01,2013-01-14 21:12:00,
2013-01-14 15:15:00,27.5,20.9,30.39,NW,314,12.0,13.0,76,0.00,,---,0.00,VWS V14.01,2013-01-14 21:15:00,
2013-01-14 15:16:00,27.4,20.8,30.39,NW,316,7.0,13.0,76,0.00,,---,0.00,VWS V14.01,2013-01-14 21:16:00,
2013-01-14 15:17:00,27.4,20.8,30.39,NW,325,10.0,13.0,76,0.00,,---,0.00,VWS V14.01,2013-01-14 21:17:00,
2013-01-14 15:20:00,27.5,21.2,30.39,NW,325,3.0,13.0,77,0.00,,---,0.00,VWS V14.01,2013-01-14 21:20:00,
2013-01-14 15:21:00,27.5,21.2,30.38,NW,312,7.0,13.0,77,0.00,,---,0.00,VWS V14.01,2013-01-14 21:21:00,
2013-01-14 15:22:00,27.6,21.4,30.38,North,4,6.0,13.0,77,0.00,,---,0.00,VWS V14.01,2013-01-14 21:22:00,
2013-01-14 15:23:00,27.6,21.4,30.38,NW,310,5.0,13.0,77,0.00,,---,0.00,VWS V14.01,2013-01-14 21:23:00,
2013-01-14 15:26:00,27.8,21.5,30.39,NW,318,4.0,13.0,77,0.00,,---,0.00,VWS V14.01,2013-01-14 21:26:00,
2013-01-14 15:27:00,27.8,21.5,30.39,NW,318,6.0,13.0,77,0.00,,---,0.00,VWS V14.01,2013-01-14 21:27:00,
2013-01-14 15:28:00,27.9,21.6,30.39,NW,315,8.0,8.0,77,0.00,,---,0.00,VWS V14.01,2013-01-14 21:28:00,
2013-01-14 15:30:00,27.9,21.6,30.39,NW,325,8.0,13.0,77,0.00,,---,0.00,VWS V14.01,2013-01-14 21:30:00,
2013-01-14 15:31:00,27.9,21.6,30.38,North,353,3.0,8.0,77,0.00,,---,0.00,VWS V14.01,2013-01-14 21:31:00,
2013-01-14 15:32:00,27.9,21.6,30.38,NW,316,5.0,8.0,77,0.00,,---,0.00,VWS V14.01,2013-01-14 21:32:00,
2013-01-14 15:33:00,27.9,21.6,30.38,NW,318,3.0,8.0,77,0.00,,---,0.00,VWS V14.01,2013-01-14 21:33:00,
2013-01-14 15:36:00,27.9,21.6,30.38,NW,325,4.0,8.0,77,0.00,,---,0.00,VWS V14.01,2013-01-14 21:36:00,
2013-01-14 15:37:00,27.9,21.6,30.38,NW,325,5.0,8.0,77,0.00,,---,0.00,VWS V14.01,2013-01-14 21:37:00,
2013-01-14 15:38:00,28.0,21.7,30.38,NNW,335,4.0,8.0,77,0.00,,---,0.00,VWS V14.01,2013-01-14 21:38:00,
2013-01-14 15:42:00,27.9,21.0,30.38,NNW,335,6.0,12.0,75,0.00,,---,0.00,VWS V14.01,2013-01-14 21:42:00,
2013-01-14 15:43:00,27.8,20.9,30.38,WNW,285,10.0,15.0,75,0.00,,---,0.00,VWS V14.01,2013-01-14 21:43:00,
2013-01-14 15:47:00,27.8,20.9,30.38,NNW,340,9.0,15.0,75,0.00,,---,0.00,VWS V14.01,2013-01-14 21:47:00,
2013-01-14 15:48:00,27.8,20.9,30.38,NW,325,9.0,15.0,75,0.00,,---,0.00,VWS V14.01,2013-01-14 21:48:00,
2013-01-14 15:52:00,27.9,21.3,30.38,NNW,330,7.0,15.0,76,0.00,,---,0.00,VWS V14.01,2013-01-14 21:52:00,
2013-01-14 15:53:00,27.9,21.0,30.38,NW,318,5.0,15.0,75,0.00,,---,0.00,VWS V14.01,2013-01-14 21:53:00,
2013-01-14 15:57:00,28.0,21.1,30.38,NNW,335,11.0,15.0,75,0.00,,---,0.00,VWS V14.01,2013-01-14 21:57:00,
2013-01-14 15:58:00,27.9,21.0,30.38,NW,311,6.0,15.0,75,0.00,,---,0.00,VWS V14.01,2013-01-14 21:58:00,
2013-01-14 16:00:00,27.9,21.0,30.38,WNW,303,8.0,15.0,75,0.00,,---,0.00,VWS V14.01,2013-01-14 22:00:00,
2013-01-14 16:02:00,28.1,21.8,30.38,NW,320,9.0,10.0,77,0.00,,---,0.00,VWS V14.01,2013-01-14 22:02:00,
2013-01-14 16:03:00,28.1,21.2,30.38,WNW,300,8.0,10.0,75,0.00,,---,0.00,VWS V14.01,2013-01-14 22:03:00,
2013-01-14 16:07:00,28.1,21.2,30.38,NW,318,8.0,12.0,75,0.00,,---,0.00,VWS V14.01,2013-01-14 22:07:00,
2013-01-14 16:08:00,28.1,21.2,30.38,NW,314,6.0,12.0,75,0.00,,---,0.00,VWS V14.01,2013-01-14 22:08:00,
2013-01-14 16:12:00,27.9,21.0,30.38,NNW,330,7.0,13.0,75,0.00,,---,0.00,VWS V14.01,2013-01-14 22:12:00,
2013-01-14 16:13:00,27.9,21.0,30.38,NW,321,6.0,13.0,75,0.00,,---,0.00,VWS V14.01,2013-01-14 22:13:00,
2013-01-14 16:17:00,27.8,20.9,30.38,NW,317,7.0,13.0,75,0.00,,---,0.00,VWS V14.01,2013-01-14 22:17:00,
2013-01-14 16:18:00,27.8,20.9,30.37,NNW,343,8.0,13.0,75,0.00,,---,0.00,VWS V14.01,2013-01-14 22:18:00,
2013-01-14 16:22:00,27.7,20.8,30.37,NW,321,6.0,13.0,75,0.00,,---,0.00,VWS V14.01,2013-01-14 22:22:00,
2013-01-14 16:23:00,27.7,20.8,30.37,NW,325,8.0,13.0,75,0.00,,---,0.00,VWS V14.01,2013-01-14 22:23:00,
2013-01-14 16:28:00,27.6,20.7,30.37,NW,310,14.0,15.0,75,0.00,,---,0.00,VWS V14.01,2013-01-14 22:28:00,
2013-01-14 16:29:00,27.6,20.7,30.37,WNW,293,6.0,14.0,75,0.00,,---,0.00,VWS V14.01,2013-01-14 22:29:00,
2013-01-14 16:30:00,27.6,20.7,30.37,NW,310,14.0,15.0,75,0.00,,---,0.00,VWS V14.01,2013-01-14 22:30:00,
2013-01-14 16:33:00,27.5,20.3,30.37,NW,320,5.0,14.0,74,0.00,,---,0.00,VWS V14.01,2013-01-14 22:33:00,
2013-01-14 16:34:00,27.5,20.6,30.37,NNW,344,6.0,14.0,75,0.00,,---,0.00,VWS V14.01,2013-01-14 22:34:00,
2013-01-14 16:38:00,27.4,20.5,30.37,NW,317,7.0,14.0,75,0.00,,---,0.00,VWS V14.01,2013-01-14 22:38:00,
2013-01-14 16:39:00,27.4,20.2,30.37,NW,325,6.0,14.0,74,0.00,,---,0.00,VWS V14.01,2013-01-14 22:39:00,
2013-01-14 16:43:00,27.3,20.4,30.37,NNW,347,4.0,14.0,75,0.00,,---,0.00,VWS V14.01,2013-01-14 22:43:00,
2013-01-14 16:44:00,27.3,20.8,30.37,NNW,330,2.0,14.0,76,0.00,,---,0.00,VWS V14.01,2013-01-14 22:44:00,
2013-01-14 16:48:00,27.2,20.6,30.37,NW,310,6.0,14.0,76,0.00,,---,0.00,VWS V14.01,2013-01-14 22:48:00,
2013-01-14 16:49:00,27.1,20.5,30.37,NW,310,3.0,14.0,76,0.00,,---,0.00,VWS V14.01,2013-01-14 22:49:00,
2013-01-14 16:53:00,27.1,20.5,30.37,NNW,335,7.0,14.0,76,0.00,,---,0.00,VWS V14.01,2013-01-14 22:53:00,
2013-01-14 16:54:00,27.1,20.5,30.37,NNW,330,6.0,14.0,76,0.00,,---,0.00,VWS V14.01,2013-01-14 22:54:00,
2013-01-14 16:59:00,27.0,20.5,30.38,NW,325,4.0,5.0,76,0.00,,---,0.00,VWS V14.01,2013-01-14 22:59:00,
2013-01-14 17:00:00,27.0,20.5,30.38,NNW,340,5.0,5.0,76,0.00,,---,0.00,VWS V14.01,2013-01-14 23:00:00,
2013-01-14 17:04:00,27.0,20.8,30.38,NNW,347,3.0,9.0,77,0.00,,---,0.00,VWS V14.01,2013-01-14 23:04:00,
2013-01-14 17:05:00,26.9,20.7,30.38,NW,325,6.0,9.0,77,0.00,,---,0.00,VWS V14.01,2013-01-14 23:05:00,
2013-01-14 17:09:00,26.9,20.7,30.38,NW,325,4.0,9.0,77,0.00,,---,0.00,VWS V14.01,2013-01-14 23:09:00,
2013-01-14 17:10:00,26.9,20.7,30.38,NW,320,4.0,9.0,77,0.00,,---,0.00,VWS V14.01,2013-01-14 23:10:00,
2013-01-14 17:14:00,26.8,20.6,30.38,NNW,330,4.0,9.0,77,0.00,,---,0.00,VWS V14.01,2013-01-14 23:14:00,
2013-01-14 17:15:00,26.8,20.6,30.38,NW,317,4.0,9.0,77,0.00,,---,0.00,VWS V14.01,2013-01-14 23:15:00,
2013-01-14 17:19:00,26.6,20.4,30.38,NW,325,7.0,9.0,77,0.00,,---,0.00,VWS V14.01,2013-01-14 23:19:00,
2013-01-14 17:20:00,26.7,20.5,30.38,NW,318,7.0,9.0,77,0.00,,---,0.00,VWS V14.01,2013-01-14 23:20:00,
2013-01-14 17:25:00,26.6,20.4,30.38,NNW,335,5.0,9.0,77,0.00,,---,0.00,VWS V14.01,2013-01-14 23:25:00,
2013-01-14 17:30:00,26.5,20.3,30.37,NNW,335,5.0,8.0,77,0.00,,---,0.00,VWS V14.01,2013-01-14 23:30:00,
2013-01-14 17:35:00,26.5,20.6,30.37,NNW,330,5.0,8.0,78,0.00,,---,0.00,VWS V14.01,2013-01-14 23:35:00,
2013-01-14 17:40:00,26.4,20.5,30.38,NNW,340,3.0,8.0,78,0.00,,---,0.00,VWS V14.01,2013-01-14 23:40:00,
2013-01-14 17:45:00,26.2,20.6,30.38,NW,325,3.0,8.0,79,0.00,,---,0.00,VWS V14.01,2013-01-14 23:45:00,
2013-01-14 17:46:00,26.2,20.6,30.38,WNW,299,5.0,8.0,79,0.00,,---,0.00,VWS V14.01,2013-01-14 23:46:00,
2013-01-14 17:50:00,26.1,20.5,30.37,NW,321,6.0,8.0,79,0.00,,---,0.00,VWS V14.01,2013-01-14 23:50:00,
2013-01-14 17:51:00,26.1,20.5,30.37,NW,325,3.0,8.0,79,0.00,,---,0.00,VWS V14.01,2013-01-14 23:51:00,
2013-01-14 17:55:00,26.0,20.4,30.37,NW,309,6.0,8.0,79,0.00,,---,0.00,VWS V14.01,2013-01-14 23:55:00,
2013-01-14 17:56:00,26.0,20.4,30.37,NW,316,5.0,8.0,79,0.00,,---,0.00,VWS V14.01,2013-01-14 23:56:00,
2013-01-14 17:57:00,26.0,20.4,30.37,NW,325,3.0,8.0,79,0.00,,---,0.00,VWS V14.01,2013-01-14 23:57:00,
2013-01-14 18:00:00,25.9,20.3,30.38,NW,321,4.0,7.0,79,0.00,,---,0.00,VWS V14.01,2013-01-15 00:00:00,
2013-01-14 18:01:00,25.9,20.3,30.38,NW,325,5.0,7.0,79,0.00,,---,0.00,VWS V14.01,2013-01-15 00:01:00,
2013-01-14 18:02:00,25.9,20.3,30.38,NW,319,5.0,7.0,79,0.00,,---,0.00,VWS V14.01,2013-01-15 00:02:00,
2013-01-14 18:05:00,25.9,20.3,30.38,NW,306,4.0,8.0,79,0.00,,---,0.00,VWS V14.01,2013-01-15 00:05:00,
2013-01-14 18:06:00,25.9,20.3,30.38,NW,308,4.0,8.0,79,0.00,,---,0.00,VWS V14.01,2013-01-15 00:06:00,
2013-01-14 18:07:00,25.9,20.3,30.38,NW,316,4.0,8.0,79,0.00,,---,0.00,VWS V14.01,2013-01-15 00:07:00,
2013-01-14 18:10:00,25.8,20.2,30.37,NW,321,6.0,8.0,79,0.00,,---,0.00,VWS V14.01,2013-01-15 00:10:00,
2013-01-14 18:11:00,25.8,20.2,30.37,NW,325,4.0,8.0,79,0.00,,---,0.00,VWS V14.01,2013-01-15 00:11:00,
2013-01-14 18:12:00,25.8,20.2,30.37,WNW,297,5.0,8.0,79,0.00,,---,0.00,VWS V14.01,2013-01-15 00:12:00,
2013-01-14 18:16:00,25.7,20.1,30.37,NW,321,5.0,8.0,79,0.00,,---,0.00,VWS V14.01,2013-01-15 00:16:00,
2013-01-14 18:17:00,25.7,20.4,30.37,NNW,339,3.0,8.0,80,0.00,,---,0.00,VWS V14.01,2013-01-15 00:17:00,
2013-01-14 18:21:00,25.7,20.4,30.37,NW,320,4.0,8.0,80,0.00,,---,0.00,VWS V14.01,2013-01-15 00:21:00,
2013-01-14 18:22:00,25.7,20.4,30.37,WNW,303,5.0,8.0,80,0.00,,---,0.00,VWS V14.01,2013-01-15 00:22:00,
2013-01-14 18:26:00,25.6,20.3,30.38,NW,308,2.0,8.0,80,0.00,,---,0.00,VWS V14.01,2013-01-15 00:26:00,
2013-01-14 18:27:00,25.6,20.3,30.38,NW,316,4.0,8.0,80,0.00,,---,0.00,VWS V14.01,2013-01-15 00:27:00,
2013-01-14 18:30:00,25.6,20.3,30.38,NW,325,4.0,8.0,80,0.00,,---,0.00,VWS V14.01,2013-01-15 00:30:00,
2013-01-14 18:31:00,25.5,20.2,30.38,NW,306,4.0,7.0,80,0.00,,---,0.00,VWS V14.01,2013-01-15 00:31:00,
2013-01-14 18:32:00,25.5,20.2,30.38,NW,321,3.0,7.0,80,0.00,,---,0.00,VWS V14.01,2013-01-15 00:32:00,
2013-01-14 18:37:00,25.4,20.1,30.38,NNW,330,5.0,7.0,80,0.00,,---,0.00,VWS V14.01,2013-01-15 00:37:00,
2013-01-14 18:42:00,25.3,20.3,30.38,NW,312,3.0,7.0,81,0.00,,---,0.00,VWS V14.01,2013-01-15 00:42:00,
2013-01-14 18:43:00,25.3,20.3,30.38,NW,312,2.0,7.0,81,0.00,,---,0.00,VWS V14.01,2013-01-15 00:43:00,
2013-01-14 18:47:00,25.2,20.2,30.37,NNW,335,4.0,7.0,81,0.00,,---,0.00,VWS V14.01,2013-01-15 00:47:00,
2013-01-14 18:48:00,25.2,20.2,30.37,NNW,330,2.0,7.0,81,0.00,,---,0.00,VWS V14.01,2013-01-15 00:48:00,
2013-01-14 18:52:00,25.0,20.0,30.37,NW,316,3.0,7.0,81,0.00,,---,0.00,VWS V14.01,2013-01-15 00:52:00,
2013-01-14 18:53:00,25.0,20.0,30.37,NW,325,4.0,7.0,81,0.00,,---,0.00,VWS V14.01,2013-01-15 00:53:00,
2013-01-14 18:57:00,25.0,20.3,30.37,NW,318,6.0,7.0,82,0.00,,---,0.00,VWS V14.01,2013-01-15 00:57:00,
2013-01-14 18:58:00,25.1,20.4,30.37,NNW,339,3.0,7.0,82,0.00,,---,0.00,VWS V14.01,2013-01-15 00:58:00,
2013-01-14 19:00:00,25.1,20.4,30.37,NNW,339,3.0,7.0,82,0.00,,---,0.00,VWS V14.01,2013-01-15 01:00:00,
2013-01-14 19:02:00,25.0,20.3,30.37,NNW,330,3.0,6.0,82,0.00,,---,0.00,VWS V14.01,2013-01-15 01:02:00,
2013-01-14 19:03:00,25.0,20.3,30.36,NW,321,4.0,6.0,82,0.00,,---,0.00,VWS V14.01,2013-01-15 01:03:00,
2013-01-14 19:07:00,25.0,20.3,30.36,NW,313,2.0,6.0,82,0.00,,---,0.00,VWS V14.01,2013-01-15 01:07:00,
2013-01-14 19:08:00,25.0,20.3,30.36,NW,314,3.0,6.0,82,0.00,,---,0.00,VWS V14.01,2013-01-15 01:08:00,
2013-01-14 19:12:00,24.9,20.2,30.36,NNW,339,3.0,6.0,82,0.00,,---,0.00,VWS V14.01,2013-01-15 01:12:00,
2013-01-14 19:13:00,24.9,20.2,30.36,NW,318,4.0,6.0,82,0.00,,---,0.00,VWS V14.01,2013-01-15 01:13:00,
2013-01-14 19:18:00,24.8,20.1,30.36,NNW,344,3.0,8.0,82,0.00,,---,0.00,VWS V14.01,2013-01-15 01:18:00,
2013-01-14 19:19:00,24.7,20.0,30.36,NW,318,2.0,8.0,82,0.00,,---,0.00,VWS V14.01,2013-01-15 01:19:00,
2013-01-14 19:23:00,24.7,20.3,30.36,NNW,335,4.0,8.0,83,0.00,,---,0.00,VWS V14.01,2013-01-15 01:23:00,
2013-01-14 19:24:00,24.7,20.0,30.36,NW,310,5.0,8.0,82,0.00,,---,0.00,VWS V14.01,2013-01-15 01:24:00,
2013-01-14 19:28:00,24.7,20.0,30.36,NNW,344,3.0,10.0,82,0.00,,---,0.00,VWS V14.01,2013-01-15 01:28:00,
2013-01-14 19:29:00,24.7,20.0,30.36,WNW,289,6.0,6.0,82,0.00,,---,0.00,VWS V14.01,2013-01-15 01:29:00,
2013-01-14 19:30:00,24.7,20.0,30.36,NNW,344,3.0,10.0,82,0.00,,---,0.00,VWS V14.01,2013-01-15 01:30:00,
2013-01-14 19:33:00,24.8,20.1,30.37,NW,309,3.0,9.0,82,0.00,,---,0.00,VWS V14.01,2013-01-15 01:33:00,
2013-01-14 19:34:00,24.7,20.0,30.37,NW,319,6.0,9.0,82,0.00,,---,0.00,VWS V14.01,2013-01-15 01:34:00,
2013-01-14 19:38:00,24.7,20.0,30.36,NNW,335,5.0,9.0,82,0.00,,---,0.00,VWS V14.01,2013-01-15 01:38:00,
2013-01-14 19:39:00,24.7,20.3,30.36,WNW,291,4.0,9.0,83,0.00,,---,0.00,VWS V14.01,2013-01-15 01:39:00,
2013-01-14 19:43:00,24.6,20.2,30.37,WNW,299,4.0,9.0,83,0.00,,---,0.00,VWS V14.01,2013-01-15 01:43:00,
2013-01-14 19:44:00,24.6,20.2,30.37,NW,318,4.0,9.0,83,0.00,,---,0.00,VWS V14.01,2013-01-15 01:44:00,
2013-01-14 19:48:00,24.6,20.2,30.37,NNW,335,4.0,9.0,83,0.00,,---,0.00,VWS V14.01,2013-01-15 01:48:00,
2013-01-14 19:49:00,24.6,20.2,30.37,WNW,291,3.0,9.0,83,0.00,,---,0.00,VWS V14.01,2013-01-15 01:49:00,
2013-01-14 19:50:00,24.6,20.2,30.37,NW,306,4.0,9.0,83,0.00,,---,0.00,VWS V14.01,2013-01-15 01:50:00,
2013-01-14 19:53:00,24.6,19.9,30.36,NW,316,5.0,9.0,82,0.00,,---,0.00,VWS V14.01,2013-01-15 01:53:00,
2013-01-14 19:54:00,24.6,19.9,30.36,NW,307,4.0,9.0,82,0.00,,---,0.00,VWS V14.01,2013-01-15 01:54:00,
2013-01-14 19:55:00,24.6,19.9,30.36,NW,321,5.0,9.0,82,0.00,,---,0.00,VWS V14.01,2013-01-15 01:55:00,
2013-01-14 19:58:00,24.5,20.1,30.36,NW,320,4.0,6.0,83,0.00,,---,0.00,VWS V14.01,2013-01-15 01:58:00,
2013-01-14 19:59:00,24.6,20.2,30.36,NNW,335,6.0,6.0,83,0.00,,---,0.00,VWS V14.01,2013-01-15 01:59:00,
2013-01-14 20:00:00,24.5,20.1,30.36,NW,316,4.0,6.0,83,0.00,,---,0.00,VWS V14.01,2013-01-15 02:00:00,
2013-01-14 20:03:00,24.5,20.1,30.36,NW,325,3.0,7.0,83,0.00,,---,0.00,VWS V14.01,2013-01-15 02:03:00,
2013-01-14 20:05:00,24.5,20.1,30.36,NNW,335,5.0,7.0,83,0.00,,---,0.00,VWS V14.01,2013-01-15 02:05:00,
2013-01-14 20:08:00,24.5,20.1,30.37,NW,325,3.0,7.0,83,0.00,,---,0.00,VWS V14.01,2013-01-15 02:08:00,
2013-01-14 20:10:00,24.5,20.1,30.37,NW,311,1.0,7.0,83,0.00,,---,0.00,VWS V14.01,2013-01-15 02:10:00,
2013-01-14 20:11:00,24.5,20.1,30.37,NW,311,2.0,7.0,83,0.00,,---,0.00,VWS V14.01,2013-01-15 02:11:00,
2013-01-14 20:14:00,24.4,20.0,30.36,WNW,292,5.0,7.0,83,0.00,,---,0.00,VWS V14.01,2013-01-15 02:14:00,
2013-01-14 20:15:00,24.4,20.0,30.37,WNW,287,4.0,7.0,83,0.00,,---,0.00,VWS V14.01,2013-01-15 02:15:00,
2013-01-14 20:16:00,24.4,20.0,30.37,NW,316,1.0,7.0,83,0.00,,---,0.00,VWS V14.01,2013-01-15 02:16:00,
2013-01-14 20:19:00,24.3,19.9,30.37,WNW,301,2.0,7.0,83,0.00,,---,0.00,VWS V14.01,2013-01-15 02:19:00,
2013-01-14 20:20:00,24.3,19.9,30.37,NNW,330,2.0,7.0,83,0.00,,---,0.00,VWS V14.01,2013-01-15 02:20:00,
2013-01-14 20:21:00,24.3,19.9,30.37,NW,310,3.0,7.0,83,0.00,,---,0.00,VWS V14.01,2013-01-15 02:21:00,
2013-01-14 20:22:00,24.3,20.2,30.37,NW,312,2.0,7.0,84,0.00,,---,0.00,VWS V14.01,2013-01-15 02:22:00,
2013-01-14 20:24:00,24.2,20.1,30.36,NNW,330,5.0,7.0,84,0.00,,---,0.00,VWS V14.01,2013-01-15 02:24:00,
2013-01-14 20:26:00,24.2,20.1,30.36,NW,308,3.0,7.0,84,0.00,,---,0.00,VWS V14.01,2013-01-15 02:26:00,
2013-01-14 20:27:00,24.3,20.2,30.36,WNW,294,7.0,8.0,84,0.00,,---,0.00,VWS V14.01,2013-01-15 02:27:00,
2013-01-14 20:29:00,24.2,20.1,30.36,WNW,293,2.0,5.0,84,0.00,,---,0.00,VWS V14.01,2013-01-15 02:29:00,
2013-01-14 20:30:00,24.2,20.1,30.37,WNW,302,3.0,8.0,84,0.00,,---,0.00,VWS V14.01,2013-01-15 02:30:00,
2013-01-14 20:31:00,24.3,20.2,30.37,NW,314,3.0,5.0,84,0.00,,---,0.00,VWS V14.01,2013-01-15 02:31:00,
2013-01-14 20:32:00,24.3,20.2,30.36,NNW,335,2.0,5.0,84,0.00,,---,0.00,VWS V14.01,2013-01-15 02:32:00,
2013-01-14 20:34:00,24.3,20.2,30.36,NW,325,2.0,5.0,84,0.00,,---,0.00,VWS V14.01,2013-01-15 02:34:00,
2013-01-14 20:36:00,24.2,20.1,30.36,NW,318,3.0,5.0,84,0.00,,---,0.00,VWS V14.01,2013-01-15 02:36:00,
2013-01-14 20:37:00,24.2,20.1,30.36,NW,320,2.0,5.0,84,0.00,,---,0.00,VWS V14.01,2013-01-15 02:37:00,
2013-01-14 20:39:00,24.1,20.0,30.36,NW,309,7.0,8.0,84,0.00,,---,0.00,VWS V14.01,2013-01-15 02:39:00,
2013-01-14 20:41:00,24.2,20.1,30.37,WNW,287,3.0,8.0,84,0.00,,---,0.00,VWS V14.01,2013-01-15 02:41:00,
2013-01-14 20:42:00,24.2,20.1,30.37,NW,316,4.0,8.0,84,0.00,,---,0.00,VWS V14.01,2013-01-15 02:42:00,
2013-01-14 20:44:00,24.1,20.0,30.37,NW,310,6.0,8.0,84,0.00,,---,0.00,VWS V14.01,2013-01-15 02:44:00,
2013-01-14 20:46:00,24.1,20.0,30.36,NW,310,2.0,8.0,84,0.00,,---,0.00,VWS V14.01,2013-01-15 02:46:00,
2013-01-14 20:47:00,24.1,20.0,30.36,NW,310,1.0,8.0,84,0.00,,---,0.00,VWS V14.01,2013-01-15 02:47:00,
2013-01-14 20:50:00,24.0,19.9,30.36,NW,310,2.0,8.0,84,0.00,,---,0.00,VWS V14.01,2013-01-15 02:50:00,
2013-01-14 20:51:00,24.0,19.9,30.36,NW,312,3.0,8.0,84,0.00,,---,0.00,VWS V14.01,2013-01-15 02:51:00,
2013-01-14 20:52:00,24.0,19.9,30.36,WNW,297,2.0,8.0,84,0.00,,---,0.00,VWS V14.01,2013-01-15 02:52:00,
2013-01-14 20:55:00,23.9,19.8,30.36,NNW,343,2.0,8.0,84,0.00,,---,0.00,VWS V14.01,2013-01-15 02:55:00,
2013-01-14 20:56:00,23.9,19.8,30.36,NNW,330,3.0,8.0,84,0.00,,---,0.00,VWS V14.01,2013-01-15 02:56:00,
2013-01-14 20:57:00,23.9,19.8,30.36,NNW,330,2.0,8.0,84,0.00,,---,0.00,VWS V14.01,2013-01-15 02:57:00,
2013-01-14 21:00:00,23.9,19.8,30.36,WNW,290,5.0,5.0,84,0.00,,---,0.00,VWS V14.01,2013-01-15 03:00:00,
2013-01-14 21:01:00,23.9,19.8,30.36,WNW,301,4.0,5.0,84,0.00,,---,0.00,VWS V14.01,2013-01-15 03:01:00,
2013-01-14 21:02:00,23.9,19.8,30.36,NW,306,5.0,6.0,84,0.00,,---,0.00,VWS V14.01,2013-01-15 03:02:00,
2013-01-14 21:05:00,23.9,19.8,30.36,NW,325,1.0,6.0,84,0.00,,---,0.00,VWS V14.01,2013-01-15 03:05:00,
2013-01-14 21:06:00,23.8,19.7,30.36,NW,325,2.0,6.0,84,0.00,,---,0.00,VWS V14.01,2013-01-15 03:06:00,
2013-01-14 21:07:00,23.8,19.7,30.36,NW,325,2.0,6.0,84,0.00,,---,0.00,VWS V14.01,2013-01-15 03:07:00,
2013-01-14 21:08:00,23.8,19.7,30.36,NW,325,3.0,6.0,84,0.00,,---,0.00,VWS V14.01,2013-01-15 03:08:00,
2013-01-14 21:10:00,23.7,19.9,30.36,NNW,335,1.0,6.0,85,0.00,,---,0.00,VWS V14.01,2013-01-15 03:10:00,
2013-01-14 21:11:00,23.7,19.9,30.36,WNW,292,4.0,6.0,85,0.00,,---,0.00,VWS V14.01,2013-01-15 03:11:00,
2013-01-14 21:13:00,23.7,19.9,30.36,WNW,296,4.0,6.0,85,0.00,,---,0.00,VWS V14.01,2013-01-15 03:13:00,
2013-01-14 21:14:00,23.7,19.9,30.36,NW,319,2.0,6.0,85,0.00,,---,0.00,VWS V14.01,2013-01-15 03:14:00,
2013-01-14 21:16:00,23.8,19.7,30.36,NW,314,2.0,6.0,84,0.00,,---,0.00,VWS V14.01,2013-01-15 03:16:00,
2013-01-14 21:18:00,23.7,19.6,30.35,NNW,330,3.0,6.0,84,0.00,,---,0.00,VWS V14.01,2013-01-15 03:18:00,
2013-01-14 21:19:00,23.7,19.6,30.35,NNW,335,3.0,6.0,84,0.00,,---,0.00,VWS V14.01,2013-01-15 03:19:00,
2013-01-14 21:21:00,23.6,19.5,30.36,NW,313,2.0,6.0,84,0.00,,---,0.00,VWS V14.01,2013-01-15 03:21:00,
2013-01-14 21:23:00,23.6,19.8,30.35,NW,310,2.0,6.0,85,0.00,,---,0.00,VWS V14.01,2013-01-15 03:23:00,
2013-01-14 21:24:00,23.6,19.8,30.36,NW,310,3.0,6.0,85,0.00,,---,0.00,VWS V14.01,2013-01-15 03:24:00,
2013-01-14 21:26:00,23.5,19.7,30.36,WNW,302,4.0,6.0,85,0.00,,---,0.00,VWS V14.01,2013-01-15 03:26:00,
2013-01-14 21:27:00,23.6,19.8,30.36,NW,315,3.0,6.0,85,0.00,,---,0.00,VWS V14.01,2013-01-15 03:27:00,
2013-01-14 21:28:00,23.6,19.8,30.36,WNW,299,3.0,4.0,85,0.00,,---,0.00,VWS V14.01,2013-01-15 03:28:00,
2013-01-14 21:29:00,23.6,19.8,30.36,NW,311,4.0,5.0,85,0.00,,---,0.00,VWS V14.01,2013-01-15 03:29:00,
2013-01-14 21:30:00,23.6,19.8,30.36,NW,307,3.0,6.0,85,0.00,,---,0.00,VWS V14.01,2013-01-15 03:30:00,
2013-01-14 21:31:00,23.6,19.8,30.36,NW,310,3.0,5.0,85,0.00,,---,0.00,VWS V14.01,2013-01-15 03:31:00,
2013-01-14 21:32:00,23.6,19.8,30.36,NW,317,4.0,5.0,85,0.00,,---,0.00,VWS V14.01,2013-01-15 03:32:00,
2013-01-14 21:33:00,23.6,19.8,30.36,NW,314,4.0,5.0,85,0.00,,---,0.00,VWS V14.01,2013-01-15 03:33:00,
2013-01-14 21:34:00,23.6,19.8,30.36,WNW,303,2.0,5.0,85,0.00,,---,0.00,VWS V14.01,2013-01-15 03:34:00,
2013-01-14 21:36:00,23.6,19.8,30.36,NW,315,6.0,8.0,85,0.00,,---,0.00,VWS V14.01,2013-01-15 03:36:00,
2013-01-14 21:37:00,23.6,19.8,30.36,WNW,298,5.0,8.0,85,0.00,,---,0.00,VWS V14.01,2013-01-15 03:37:00,
2013-01-14 21:38:00,23.6,19.8,30.36,NW,306,2.0,8.0,85,0.00,,---,0.00,VWS V14.01,2013-01-15 03:38:00,
2013-01-14 21:39:00,23.6,19.8,30.36,NW,311,4.0,8.0,85,0.00,,---,0.00,VWS V14.01,2013-01-15 03:39:00,
2013-01-14 21:42:00,23.5,19.7,30.35,West,273,5.0,8.0,85,0.00,,---,0.00,VWS V14.01,2013-01-15 03:42:00,
2013-01-14 21:43:00,23.5,19.7,30.35,NW,306,5.0,8.0,85,0.00,,---,0.00,VWS V14.01,2013-01-15 03:43:00,
2013-01-14 21:45:00,23.5,19.7,30.35,WNW,293,3.0,8.0,85,0.00,,---,0.00,VWS V14.01,2013-01-15 03:45:00,
2013-01-14 21:47:00,23.5,19.7,30.35,WNW,298,5.0,8.0,85,0.00,,---,0.00,VWS V14.01,2013-01-15 03:47:00,
2013-01-14 21:48:00,23.5,19.7,30.35,NW,313,6.0,8.0,85,0.00,,---,0.00,VWS V14.01,2013-01-15 03:48:00,
2013-01-14 21:49:00,23.5,19.7,30.35,NW,304,5.0,8.0,85,0.00,,---,0.00,VWS V14.01,2013-01-15 03:49:00,
2013-01-14 21:50:00,23.5,19.7,30.35,NW,306,3.0,8.0,85,0.00,,---,0.00,VWS V14.01,2013-01-15 03:50:00,
2013-01-14 21:52:00,23.5,19.7,30.35,NW,317,6.0,8.0,85,0.00,,---,0.00,VWS V14.01,2013-01-15 03:52:00,
2013-01-14 21:53:00,23.5,19.7,30.35,NNW,343,8.0,8.0,85,0.00,,---,0.00,VWS V14.01,2013-01-15 03:53:00,
2013-01-14 21:54:00,23.5,19.7,30.35,NW,310,9.0,10.0,85,0.00,,---,0.00,VWS V14.01,2013-01-15 03:54:00,
2013-01-14 21:55:00,23.5,19.7,30.35,WNW,288,5.0,10.0,85,0.00,,---,0.00,VWS V14.01,2013-01-15 03:55:00,
2013-01-14 21:57:00,23.5,19.7,30.35,WNW,299,4.0,10.0,85,0.00,,---,0.00,VWS V14.01,2013-01-15 03:57:00,
2013-01-14 21:58:00,23.5,19.7,30.35,NW,310,4.0,5.0,85,0.00,,---,0.00,VWS V14.01,2013-01-15 03:58:00,
2013-01-14 21:59:00,23.5,19.7,30.35,NW,312,7.0,7.0,85,0.00,,---,0.00,VWS V14.01,2013-01-15 03:59:00,
2013-01-14 22:00:00,23.5,19.7,30.36,NW,310,4.0,7.0,85,0.00,,---,0.00,VWS V14.01,2013-01-15 04:00:00,
2013-01-14 22:02:00,23.5,19.7,30.36,WNW,299,4.0,7.0,85,0.00,,---,0.00,VWS V14.01,2013-01-15 04:02:00,
2013-01-14 22:03:00,23.6,19.8,30.36,NW,313,5.0,9.0,85,0.00,,---,0.00,VWS V14.01,2013-01-15 04:03:00,
2013-01-14 22:04:00,23.6,19.5,30.36,WNW,303,4.0,9.0,84,0.00,,---,0.00,VWS V14.01,2013-01-15 04:04:00,
2013-01-14 22:05:00,23.6,19.5,30.36,NNW,335,6.0,9.0,84,0.00,,---,0.00,VWS V14.01,2013-01-15 04:05:00,
2013-01-14 22:07:00,23.6,19.5,30.35,NW,312,4.0,9.0,84,0.00,,---,0.00,VWS V14.01,2013-01-15 04:07:00,
2013-01-14 22:08:00,23.6,19.5,30.36,NW,325,4.0,9.0,84,0.00,,---,0.00,VWS V14.01,2013-01-15 04:08:00,
2013-01-14 22:10:00,23.6,19.5,30.35,WNW,286,7.0,9.0,84,0.00,,---,0.00,VWS V14.01,2013-01-15 04:10:00,
2013-01-14 22:12:00,23.5,19.4,30.35,NW,306,3.0,9.0,84,0.00,,---,0.00,VWS V14.01,2013-01-15 04:12:00,
2013-01-14 22:14:00,23.6,19.8,30.35,WNW,292,4.0,9.0,85,0.00,,---,0.00,VWS V14.01,2013-01-15 04:14:00,
2013-01-14 22:15:00,23.5,19.7,30.35,NNW,342,2.0,9.0,85,0.00,,---,0.00,VWS V14.01,2013-01-15 04:15:00,
2013-01-14 22:16:00,23.5,19.7,30.35,NNW,342,2.0,9.0,85,0.00,,---,0.00,VWS V14.01,2013-01-15 04:16:00,
2013-01-14 22:17:00,23.6,19.8,30.35,NW,305,5.0,9.0,85,0.00,,---,0.00,VWS V14.01,2013-01-15 04:17:00,
2013-01-14 22:19:00,23.5,19.7,30.35,WNW,301,6.0,9.0,85,0.00,,---,0.00,VWS V14.01,2013-01-15 04:19:00,
2013-01-14 22:21:00,23.5,19.7,30.36,NW,325,3.0,9.0,85,0.00,,---,0.00,VWS V14.01,2013-01-15 04:21:00,
2013-01-14 22:23:00,23.5,19.4,30.35,NW,311,3.0,9.0,84,0.00,,---,0.00,VWS V14.01,2013-01-15 04:23:00,
2013-01-14 22:24:00,23.5,19.4,30.35,WNW,297,3.0,9.0,84,0.00,,---,0.00,VWS V14.01,2013-01-15 04:24:00,
2013-01-14 22:26:00,23.5,19.4,30.35,NW,310,4.0,9.0,84,0.00,,---,0.00,VWS V14.01,2013-01-15 04:26:00,
2013-01-14 22:28:00,23.5,19.7,30.35,NW,311,5.0,6.0,85,0.00,,---,0.00,VWS V14.01,2013-01-15 04:28:00,
2013-01-14 22:29:00,23.5,19.7,30.35,WNW,303,3.0,6.0,85,0.00,,---,0.00,VWS V14.01,2013-01-15 04:29:00,
2013-01-14 22:30:00,23.5,19.7,30.35,NNW,341,5.0,9.0,85,0.00,,---,0.00,VWS V14.01,2013-01-15 04:30:00,
2013-01-14 22:31:00,23.5,19.7,30.35,WNW,297,7.0,8.0,85,0.00,,---,0.00,VWS V14.01,2013-01-15 04:31:00,
2013-01-14 22:33:00,23.5,19.7,30.35,NW,321,5.0,9.0,85,0.00,,---,0.00,VWS V14.01,2013-01-15 04:33:00,
2013-01-14 22:34:00,23.5,19.7,30.35,NW,321,5.0,9.0,85,0.00,,---,0.00,VWS V14.01,2013-01-15 04:34:00,
2013-01-14 22:36:00,23.5,19.7,30.35,NNW,330,4.0,9.0,85,0.00,,---,0.00,VWS V14.01,2013-01-15 04:36:00,
2013-01-14 22:37:00,23.5,19.7,30.35,NW,325,4.0,9.0,85,0.00,,---,0.00,VWS V14.01,2013-01-15 04:37:00,
2013-01-14 22:38:00,23.5,19.7,30.36,WNW,298,4.0,9.0,85,0.00,,---,0.00,VWS V14.01,2013-01-15 04:38:00,
2013-01-14 22:39:00,23.5,19.7,30.35,NW,317,3.0,9.0,85,0.00,,---,0.00,VWS V14.01,2013-01-15 04:39:00,
2013-01-14 22:41:00,23.5,19.7,30.35,West,281,3.0,9.0,85,0.00,,---,0.00,VWS V14.01,2013-01-15 04:41:00,
2013-01-14 22:42:00,23.5,19.7,30.35,WNW,282,8.0,9.0,85,0.00,,---,0.00,VWS V14.01,2013-01-15 04:42:00,
2013-01-14 22:44:00,23.5,19.7,30.35,NW,304,4.0,9.0,85,0.00,,---,0.00,VWS V14.01,2013-01-15 04:44:00,
2013-01-14 22:46:00,23.5,19.7,30.35,NW,320,5.0,9.0,85,0.00,,---,0.00,VWS V14.01,2013-01-15 04:46:00,
2013-01-14 22:47:00,23.5,19.7,30.35,NNW,330,6.0,9.0,85,0.00,,---,0.00,VWS V14.01,2013-01-15 04:47:00,
2013-01-14 22:49:00,23.5,19.7,30.35,WNW,284,5.0,9.0,85,0.00,,---,0.00,VWS V14.01,2013-01-15 04:49:00,
2013-01-14 22:51:00,23.5,19.7,30.36,NNW,330,4.0,12.0,85,0.00,,---,0.00,VWS V14.01,2013-01-15 04:51:00,
2013-01-14 22:52:00,23.5,19.7,30.36,NNW,335,5.0,12.0,85,0.00,,---,0.00,VWS V14.01,2013-01-15 04:52:00,
2013-01-14 22:54:00,23.5,19.4,30.35,NW,310,7.0,15.0,84,0.00,,---,0.00,VWS V14.01,2013-01-15 04:54:00,
2013-01-14 22:57:00,23.6,19.5,30.35,NW,316,3.0,15.0,84,0.00,,---,0.00,VWS V14.01,2013-01-15 04:57:00,
2013-01-14 22:59:00,23.5,19.4,30.35,NW,319,4.0,7.0,84,0.00,,---,0.00,VWS V14.01,2013-01-15 04:59:00,
2013-01-14 23:00:00,23.6,19.5,30.35,WNW,295,4.0,7.0,84,0.00,,---,0.00,VWS V14.01,2013-01-15 05:00:00,
2013-01-14 23:01:00,23.6,19.5,30.35,NW,308,5.0,7.0,84,0.00,,---,0.00,VWS V14.01,2013-01-15 05:01:00,
2013-01-14 23:05:00,23.6,19.5,30.35,WNW,290,8.0,9.0,84,0.00,,---,0.00,VWS V14.01,2013-01-15 05:05:00,
2013-01-14 23:07:00,23.5,19.4,30.35,NW,313,6.0,9.0,84,0.00,,---,0.00,VWS V14.01,2013-01-15 05:07:00,
2013-01-14 23:10:00,23.6,19.5,30.35,NW,310,7.0,9.0,84,0.00,,---,0.00,VWS V14.01,2013-01-15 05:10:00,
2013-01-14 23:11:00,23.5,19.4,30.35,WNW,299,4.0,9.0,84,0.00,,---,0.00,VWS V14.01,2013-01-15 05:11:00,
2013-01-14 23:12:00,23.6,19.5,30.35,NW,320,3.0,9.0,84,0.00,,---,0.00,VWS V14.01,2013-01-15 05:12:00,
2013-01-14 23:15:00,23.5,19.4,30.35,NNW,341,5.0,10.0,84,0.00,,---,0.00,VWS V14.01,2013-01-15 05:15:00,
2013-01-14 23:16:00,23.5,19.4,30.35,NW,318,6.0,10.0,84,0.00,,---,0.00,VWS V14.01,2013-01-15 05:16:00,
2013-01-14 23:17:00,23.5,19.4,30.35,NW,314,6.0,10.0,84,0.00,,---,0.00,VWS V14.01,2013-01-15 05:17:00,
2013-01-14 23:20:00,23.5,19.4,30.35,NW,312,5.0,10.0,84,0.00,,---,0.00,VWS V14.01,2013-01-15 05:20:00,
2013-01-14 23:21:00,23.5,19.4,30.35,WNW,283,3.0,10.0,84,0.00,,---,0.00,VWS V14.01,2013-01-15 05:21:00,
2013-01-14 23:22:00,23.5,19.4,30.35,NNW,330,4.0,10.0,84,0.00,,---,0.00,VWS V14.01,2013-01-15 05:22:00,
2013-01-14 23:25:00,23.5,19.4,30.35,NW,320,6.0,11.0,84,0.00,,---,0.00,VWS V14.01,2013-01-15 05:25:00,
2013-01-14 23:26:00,23.4,19.3,30.35,NW,306,4.0,11.0,84,0.00,,---,0.00,VWS V14.01,2013-01-15 05:26:00,
2013-01-14 23:27:00,23.5,19.4,30.35,NW,306,6.0,11.0,84,0.00,,---,0.00,VWS V14.01,2013-01-15 05:27:00,
2013-01-14 23:30:00,23.4,19.3,30.35,NW,318,6.0,8.0,84,0.00,,---,0.00,VWS V14.01,2013-01-15 05:30:00,
2013-01-14 23:31:00,23.4,19.3,30.35,NW,309,2.0,8.0,84,0.00,,---,0.00,VWS V14.01,2013-01-15 05:31:00,
2013-01-14 23:32:00,23.4,19.3,30.36,NW,306,5.0,8.0,84,0.00,,---,0.00,VWS V14.01,2013-01-15 05:32:00,
2013-01-14 23:35:00,23.4,19.3,30.35,WNW,300,4.0,8.0,84,0.00,,---,0.00,VWS V14.01,2013-01-15 05:35:00,
2013-01-14 23:36:00,23.4,19.3,30.36,WNW,299,3.0,8.0,84,0.00,,---,0.00,VWS V14.01,2013-01-15 05:36:00,
2013-01-14 23:37:00,23.4,19.3,30.36,NW,312,3.0,8.0,84,0.00,,---,0.00,VWS V14.01,2013-01-15 05:37:00,
2013-01-14 23:41:00,23.4,19.3,30.36,NNW,335,5.0,8.0,84,0.00,,---,0.00,VWS V14.01,2013-01-15 05:41:00,
2013-01-14 23:42:00,23.4,19.6,30.36,NW,325,5.0,8.0,85,0.00,,---,0.00,VWS V14.01,2013-01-15 05:42:00,
2013-01-14 23:43:00,23.4,19.3,30.35,NW,319,2.0,8.0,84,0.00,,---,0.00,VWS V14.01,2013-01-15 05:43:00,
2013-01-14 23:46:00,23.3,19.5,30.35,NNW,330,3.0,8.0,85,0.00,,---,0.00,VWS V14.01,2013-01-15 05:46:00,
2013-01-14 23:47:00,23.3,19.5,30.35,NNW,335,3.0,8.0,85,0.00,,---,0.00,VWS V14.01,2013-01-15 05:47:00,
2013-01-14 23:48:00,23.3,19.5,30.35,WNW,301,4.0,8.0,85,0.00,,---,0.00,VWS V14.01,2013-01-15 05:48:00,
2013-01-14 23:51:00,23.3,19.5,30.35,NW,304,3.0,8.0,85,0.00,,---,0.00,VWS V14.01,2013-01-15 05:51:00,
2013-01-14 23:52:00,23.2,19.4,30.35,NW,304,3.0,8.0,85,0.00,,---,0.00,VWS V14.01,2013-01-15 05:52:00,
2013-01-14 23:53:00,23.2,19.4,30.35,WNW,285,5.0,9.0,85,0.00,,---,0.00,VWS V14.01,2013-01-15 05:53:00,
2013-01-14 23:56:00,23.2,19.4,30.35,NNW,330,2.0,9.0,85,0.00,,---,0.00,VWS V14.01,2013-01-15 05:56:00,
2013-01-14 23:57:00,23.2,19.4,30.35,NNW,330,2.0,9.0,85,0.00,,---,0.00,VWS V14.01,2013-01-15 05:57:00,
2013-01-14 23:58:00,23.1,19.3,30.35,NNW,335,2.0,4.0,85,0.00,,---,0.00,VWS V14.01,2013-01-15 05:58:00,